Wetterdaten: Freitag, 28.04.2023
Datum Zeit Temp. Aussen Temp. o. S. Temp +5cm Feuchte Auss Luftdruck Regen Sonnenschein Regendauer Solar Windben Empfang
28.04.2023 00:00 10,1 C 9,4 C 5,6 C 71 % 1015,1 hPa 0,0 l/m 0 min 0 min 0 W/m 3,2 km/h (1 Bft) 100,00 %
28.04.2023 00:05 10,1 C 9,4 C 6,1 C 71 % 1015,1 hPa 0,0 l/m 0 min 0 min 0 W/m 3,2 km/h (1 Bft) 100,00 %
28.04.2023 00:10 10,1 C 9,4 C 6,1 C 71 % 1014,9 hPa 0,0 l/m 0 min 0 min 0 W/m 6,4 km/h (2 Bft) 100,00 %
28.04.2023 00:15 10,1 C 9,4 C 5,6 C 71 % 1014,9 hPa 0,0 l/m 0 min 0 min 0 W/m 0,0 km/h (0 Bft) 100,00 %
28.04.2023 00:20 10,1 C 9,4 C 5,6 C 72 % 1014,9 hPa 0,0 l/m 0 min 0 min 0 W/m 0,0 km/h (0 Bft) 100,00 %
28.04.2023 00:25 10,0 C 9,4 C 5,6 C 72 % 1014,8 hPa 0,0 l/m 0 min 0 min 0 W/m 0,0 km/h (0 Bft) 99,12 %
28.04.2023 00:30 9,9 C 9,4 C 5,6 C 72 % 1014,8 hPa 0,0 l/m 0 min 0 min 0 W/m 0,0 km/h (0 Bft) 99,12 %
28.04.2023 00:35 9,9 C 9,4 C 5,6 C 73 % 1014,8 hPa 0,0 l/m 0 min 5 min 0 W/m 0,0 km/h (0 Bft) 100,00 %
28.04.2023 00:40 9,9 C 9,4 C 5,6 C 73 % 1014,8 hPa 0,0 l/m 0 min 0 min 0 W/m 0,0 km/h (0 Bft) 100,00 %
28.04.2023 00:45 9,9 C 9,4 C 5,6 C 73 % 1014,7 hPa 0,0 l/m 0 min 0 min 0 W/m 0,0 km/h (0 Bft) 100,00 %
28.04.2023 00:50 9,9 C 8,9 C 5,6 C 75 % 1014,7 hPa 0,0 l/m 0 min 0 min 0 W/m 0,0 km/h (0 Bft) 100,00 %
28.04.2023 00:55 9,8 C 8,9 C 5,6 C 75 % 1014,6 hPa 0,0 l/m 0 min 0 min 0 W/m 0,0 km/h (0 Bft) 100,00 %
28.04.2023 01:00 9,8 C 8,9 C 5,6 C 76 % 1014,6 hPa 0,0 l/m 0 min 0 min 0 W/m 0,0 km/h (0 Bft) 100,00 %
28.04.2023 01:05 9,8 C 8,9 C 5,0 C 76 % 1014,6 hPa 0,0 l/m 0 min 5 min 0 W/m 0,0 km/h (0 Bft) 100,00 %
28.04.2023 01:10 9,7 C 8,9 C 5,0 C 76 % 1014,6 hPa 0,0 l/m 0 min 5 min 0 W/m 0,0 km/h (0 Bft) 100,00 %
28.04.2023 01:15 9,7 C 8,9 C 4,4 C 78 % 1014,5 hPa 0,0 l/m 0 min 5 min 0 W/m 0,0 km/h (0 Bft) 100,00 %
28.04.2023 01:20 9,7 C 8,9 C 4,4 C 78 % 1014,6 hPa 0,0 l/m 0 min 0 min 0 W/m 0,0 km/h (0 Bft) 100,00 %
28.04.2023 01:25 9,6 C 8,9 C 4,4 C 79 % 1014,5 hPa 0,0 l/m 0 min 0 min 0 W/m 0,0 km/h (0 Bft) 98,25 %
28.04.2023 01:30 9,6 C 8,9 C 5,0 C 79 % 1014,4 hPa 0,0 l/m 0 min 5 min 0 W/m 0,0 km/h (0 Bft) 95,61 %
28.04.2023 01:35 9,6 C 8,3 C 5,0 C 79 % 1014,3 hPa 0,0 l/m 0 min 0 min 0 W/m 0,0 km/h (0 Bft) 98,25 %
28.04.2023 01:40 9,5 C 8,3 C 5,0 C 80 % 1014,2 hPa 0,0 l/m 0 min 0 min 0 W/m 0,0 km/h (0 Bft) 100,00 %
28.04.2023 01:45 9,4 C 8,3 C 5,0 C 80 % 1014,3 hPa 0,0 l/m 0 min 0 min 0 W/m 0,0 km/h (0 Bft) 100,00 %
28.04.2023 01:50 9,4 C 8,3 C 5,0 C 79 % 1014,2 hPa 0,0 l/m 0 min 0 min 0 W/m 0,0 km/h (0 Bft) 100,00 %
28.04.2023 01:55 9,3 C 8,3 C 5,0 C 79 % 1014,1 hPa 0,0 l/m 0 min 5 min 0 W/m 0,0 km/h (0 Bft) 100,00 %
28.04.2023 02:00 9,3 C 8,3 C 4,4 C 79 % 1014,0 hPa 0,0 l/m 0 min 5 min 0 W/m 0,0 km/h (0 Bft) 100,00 %
28.04.2023 02:05 9,3 C 8,3 C 4,4 C 80 % 1013,9 hPa 0,0 l/m 0 min 5 min 0 W/m 6,4 km/h (2 Bft) 100,00 %
28.04.2023 02:10 9,2 C 8,3 C 4,4 C 80 % 1013,8 hPa 0,0 l/m 0 min 0 min 0 W/m 9,7 km/h (2 Bft) 99,12 %
28.04.2023 02:15 9,1 C 8,3 C 4,4 C 80 % 1013,7 hPa 0,0 l/m 0 min 0 min 0 W/m 6,4 km/h (2 Bft) 100,00 %
28.04.2023 02:20 9,1 C 8,3 C 4,4 C 81 % 1013,7 hPa 0,0 l/m 0 min 0 min 0 W/m 6,4 km/h (2 Bft) 99,12 %
28.04.2023 02:24 9,1 C 8,3 C 4,4 C 81 % 1013,7 hPa 0,0 l/m 0 min 0 min 0 W/m 0,0 km/h (0 Bft) 93,33 %
28.04.2023 02:26 9,1 C 8,3 C 4,4 C 82 % 1013,7 hPa 0,0 l/m 0 min 0 min 0 W/m 3,2 km/h (1 Bft) 95,92 %
28.04.2023 02:28 9,1 C 8,3 C 4,4 C 82 % 1013,7 hPa 0,0 l/m 0 min 0 min 0 W/m 3,2 km/h (1 Bft) 95,74 %
28.04.2023 02:30 9,1 C 8,3 C 4,4 C 82 % 1013,7 hPa 0,0 l/m 0 min 2 min 0 W/m 3,2 km/h (1 Bft) 93,62 %
28.04.2023 02:32 9,1 C 8,3 C 4,4 C 82 % 1013,6 hPa 0,0 l/m 0 min 2 min 0 W/m 6,4 km/h (2 Bft) 100,00 %
28.04.2023 02:34 9,1 C 8,3 C 4,4 C 82 % 1013,6 hPa 0,0 l/m 0 min 0 min 0 W/m 3,2 km/h (1 Bft) 100,00 %
28.04.2023 02:36 9,1 C 8,3 C 4,4 C 83 % 1013,6 hPa 0,0 l/m 0 min 0 min 0 W/m 3,2 km/h (1 Bft) 97,87 %
28.04.2023 02:38 9,0 C 8,3 C 4,4 C 83 % 1013,5 hPa 0,0 l/m 0 min 2 min 0 W/m 3,2 km/h (1 Bft) 95,74 %
28.04.2023 02:40 9,0 C 8,3 C 4,4 C 83 % 1013,5 hPa 0,0 l/m 0 min 2 min 0 W/m 3,2 km/h (1 Bft) 97,87 %
28.04.2023 02:42 9,0 C 8,3 C 4,4 C 83 % 1013,5 hPa 0,0 l/m 0 min 2 min 0 W/m 6,4 km/h (2 Bft) 97,87 %
28.04.2023 02:44 9,0 C 8,3 C 3,9 C 83 % 1013,5 hPa 0,0 l/m 0 min 2 min 0 W/m 3,2 km/h (1 Bft) 40,00 %
28.04.2023 02:46 9,0 C 8,3 C 3,9 C 84 % 1013,5 hPa 0,2 l/m 0 min 2 min 0 W/m 3,2 km/h (1 Bft) 98,15 %
28.04.2023 02:48 9,0 C 7,8 C 3,9 C 84 % 1013,4 hPa 0,0 l/m 0 min 2 min 0 W/m 6,4 km/h (2 Bft) 93,62 %
28.04.2023 02:50 9,0 C 7,8 C 3,9 C 84 % 1013,5 hPa 0,0 l/m 0 min 2 min 0 W/m 3,2 km/h (1 Bft) 93,62 %
28.04.2023 02:52 8,9 C 7,8 C 3,9 C 84 % 1013,5 hPa 0,0 l/m 0 min 2 min 0 W/m 6,4 km/h (2 Bft) 91,49 %
28.04.2023 02:54 8,9 C 7,8 C 3,9 C 84 % 1013,5 hPa 0,0 l/m 0 min 2 min 0 W/m 6,4 km/h (2 Bft) 95,92 %
28.04.2023 02:56 8,9 C 7,8 C 3,9 C 85 % 1013,4 hPa 0,0 l/m 0 min 2 min 0 W/m 6,4 km/h (2 Bft) 95,74 %
28.04.2023 02:58 8,9 C 7,8 C 3,9 C 85 % 1013,4 hPa 0,0 l/m 0 min 2 min 0 W/m 3,2 km/h (1 Bft) 95,74 %
28.04.2023 03:00 8,9 C 7,8 C 3,9 C 85 % 1013,3 hPa 0,2 l/m 0 min 2 min 0 W/m 6,4 km/h (2 Bft) 95,74 %
28.04.2023 03:02 8,9 C 7,8 C 3,9 C 85 % 1013,3 hPa 0,0 l/m 0 min 2 min 0 W/m 6,4 km/h (2 Bft) 92,86 %
28.04.2023 03:04 8,8 C 7,8 C 3,9 C 85 % 1013,2 hPa 0,0 l/m 0 min 2 min 0 W/m 3,2 km/h (1 Bft) 95,24 %
28.04.2023 03:06 8,8 C 7,8 C 3,9 C 86 % 1013,2 hPa 0,0 l/m 0 min 2 min 0 W/m 6,4 km/h (2 Bft) 95,74 %
28.04.2023 03:08 8,8 C 7,8 C 3,9 C 86 % 1013,2 hPa 0,0 l/m 0 min 2 min 0 W/m 6,4 km/h (2 Bft) 96,23 %
28.04.2023 03:10 8,8 C 7,8 C 3,9 C 86 % 1013,2 hPa 0,0 l/m 0 min 2 min 0 W/m 3,2 km/h (1 Bft) 95,74 %
28.04.2023 03:12 8,8 C 7,8 C 3,9 C 86 % 1013,3 hPa 0,0 l/m 0 min 2 min 0 W/m 6,4 km/h (2 Bft) 97,87 %
28.04.2023 03:14 8,8 C 7,8 C 3,9 C 87 % 1013,2 hPa 0,0 l/m 0 min 2 min 0 W/m 3,2 km/h (1 Bft) 97,87 %
28.04.2023 03:16 8,8 C 7,8 C 3,9 C 87 % 1013,2 hPa 0,0 l/m 0 min 2 min 0 W/m 3,2 km/h (1 Bft) 100,00 %
28.04.2023 03:18 8,7 C 7,8 C 3,9 C 87 % 1013,2 hPa 0,0 l/m 0 min 2 min 0 W/m 3,2 km/h (1 Bft) 100,00 %
28.04.2023 03:20 8,8 C 7,8 C 3,9 C 87 % 1013,2 hPa 0,0 l/m 0 min 2 min 0 W/m 3,2 km/h (1 Bft) 100,00 %
28.04.2023 03:22 8,8 C 7,8 C 3,9 C 88 % 1013,2 hPa 0,0 l/m 0 min 2 min 0 W/m 3,2 km/h (1 Bft) 100,00 %
28.04.2023 03:24 8,8 C 7,8 C 3,9 C 88 % 1013,3 hPa 0,2 l/m 0 min 2 min 0 W/m 3,2 km/h (1 Bft) 100,00 %
28.04.2023 03:26 8,8 C 7,8 C 3,9 C 88 % 1013,3 hPa 0,0 l/m 0 min 2 min 0 W/m 3,2 km/h (1 Bft) 100,00 %
28.04.2023 03:28 8,8 C 7,8 C 3,9 C 88 % 1013,3 hPa 0,0 l/m 0 min 2 min 0 W/m 3,2 km/h (1 Bft) 97,87 %
28.04.2023 03:30 8,8 C 7,8 C 3,9 C 88 % 1013,2 hPa 0,0 l/m 0 min 2 min 0 W/m 0,0 km/h (0 Bft) 100,00 %
28.04.2023 03:32 8,8 C 7,8 C 3,9 C 88 % 1013,2 hPa 0,0 l/m 0 min 2 min 0 W/m 3,2 km/h (1 Bft) 97,83 %
28.04.2023 03:34 8,8 C 7,8 C 3,9 C 89 % 1013,3 hPa 0,0 l/m 0 min 2 min 0 W/m 0,0 km/h (0 Bft) 100,00 %
28.04.2023 03:36 8,8 C 7,8 C 3,9 C 89 % 1013,2 hPa 0,0 l/m 0 min 2 min 0 W/m 0,0 km/h (0 Bft) 100,00 %
28.04.2023 03:38 8,8 C 7,8 C 3,9 C 89 % 1013,2 hPa 0,0 l/m 0 min 2 min 0 W/m 3,2 km/h (1 Bft) 100,00 %
28.04.2023 03:40 8,8 C 7,8 C 3,9 C 89 % 1013,2 hPa 0,0 l/m 0 min 0 min 0 W/m 3,2 km/h (1 Bft) 100,00 %
28.04.2023 03:42 8,8 C 7,8 C 3,9 C 89 % 1013,2 hPa 0,0 l/m 0 min 2 min 0 W/m 3,2 km/h (1 Bft) 100,00 %
28.04.2023 03:44 8,8 C 7,8 C 3,9 C 89 % 1013,1 hPa 0,0 l/m 0 min 2 min 0 W/m 3,2 km/h (1 Bft) 100,00 %
28.04.2023 03:46 8,8 C 7,8 C 3,9 C 89 % 1013,0 hPa 0,2 l/m 0 min 0 min 0 W/m 3,2 km/h (1 Bft) 100,00 %
28.04.2023 03:48 8,8 C 7,8 C 3,9 C 90 % 1013,0 hPa 0,0 l/m 0 min 0 min 0 W/m 3,2 km/h (1 Bft) 100,00 %
28.04.2023 03:50 8,8 C 7,8 C 3,9 C 90 % 1012,9 hPa 0,0 l/m 0 min 0 min 0 W/m 3,2 km/h (1 Bft) 97,87 %
28.04.2023 03:52 8,8 C 8,3 C 4,4 C 90 % 1012,9 hPa 0,0 l/m 0 min 0 min 0 W/m 3,2 km/h (1 Bft) 97,87 %
28.04.2023 03:54 8,9 C 8,3 C 4,4 C 90 % 1012,9 hPa 0,0 l/m 0 min 0 min 0 W/m 3,2 km/h (1 Bft) 100,00 %
28.04.2023 03:56 8,9 C 8,3 C 4,4 C 90 % 1012,8 hPa 0,0 l/m 0 min 0 min 0 W/m 3,2 km/h (1 Bft) 100,00 %
28.04.2023 03:58 8,9 C 7,8 C 3,9 C 90 % 1012,8 hPa 0,0 l/m 0 min 0 min 0 W/m 0,0 km/h (0 Bft) 97,87 %
28.04.2023 04:00 8,9 C 7,8 C 3,9 C 91 % 1012,8 hPa 0,0 l/m 0 min 0 min 0 W/m 3,2 km/h (1 Bft) 100,00 %
28.04.2023 04:02 8,9 C 7,8 C 3,9 C 90 % 1012,9 hPa 0,0 l/m 0 min 0 min 0 W/m 0,0 km/h (0 Bft) 100,00 %
28.04.2023 04:04 8,9 C 7,8 C 3,9 C 91 % 1012,9 hPa 0,0 l/m 0 min 0 min 0 W/m 0,0 km/h (0 Bft) 97,83 %
28.04.2023 04:06 8,9 C 7,8 C 3,9 C 91 % 1012,8 hPa 0,0 l/m 0 min 0 min 0 W/m 3,2 km/h (1 Bft) 97,87 %
28.04.2023 04:08 8,9 C 7,8 C 3,9 C 91 % 1012,7 hPa 0,0 l/m 0 min 0 min 0 W/m 3,2 km/h (1 Bft) 97,92 %
28.04.2023 04:10 8,9 C 7,8 C 4,4 C 91 % 1012,7 hPa 0,0 l/m 0 min 0 min 0 W/m 3,2 km/h (1 Bft) 100,00 %
28.04.2023 04:12 8,9 C 8,3 C 4,4 C 91 % 1012,7 hPa 0,0 l/m 0 min 0 min 0 W/m 3,2 km/h (1 Bft) 100,00 %
28.04.2023 04:14 8,9 C 8,3 C 4,4 C 91 % 1012,7 hPa 0,0 l/m 0 min 0 min 0 W/m 3,2 km/h (1 Bft) 100,00 %
28.04.2023 04:16 9,0 C 8,3 C 4,4 C 91 % 1012,7 hPa 0,0 l/m 0 min 0 min 0 W/m 3,2 km/h (1 Bft) 100,00 %
28.04.2023 04:18 9,0 C 8,3 C 4,4 C 91 % 1012,8 hPa 0,0 l/m 0 min 2 min 0 W/m 3,2 km/h (1 Bft) 100,00 %
28.04.2023 04:20 9,0 C 8,3 C 4,4 C 92 % 1012,9 hPa 0,0 l/m 0 min 2 min 0 W/m 0,0 km/h (0 Bft) 100,00 %
28.04.2023 04:22 9,0 C 8,3 C 4,4 C 92 % 1012,9 hPa 0,0 l/m 0 min 2 min 0 W/m 3,2 km/h (1 Bft) 100,00 %
28.04.2023 04:24 9,1 C 8,3 C 4,4 C 92 % 1012,9 hPa 0,0 l/m 0 min 0 min 0 W/m 0,0 km/h (0 Bft) 100,00 %
28.04.2023 04:26 9,1 C 8,3 C 4,4 C 92 % 1012,9 hPa 0,0 l/m 0 min 0 min 0 W/m 0,0 km/h (0 Bft) 97,87 %
28.04.2023 04:28 9,1 C 8,3 C 4,4 C 92 % 1012,9 hPa 0,0 l/m 0 min 2 min 0 W/m 0,0 km/h (0 Bft) 97,87 %
28.04.2023 04:30 9,1 C 8,3 C 4,4 C 92 % 1012,9 hPa 0,0 l/m 0 min 2 min 0 W/m 3,2 km/h (1 Bft) 97,87 %
28.04.2023 04:32 9,1 C 8,3 C 4,4 C 92 % 1012,9 hPa 0,0 l/m 0 min 2 min 0 W/m 0,0 km/h (0 Bft) 95,74 %
28.04.2023 04:34 9,1 C 8,3 C 4,4 C 92 % 1012,9 hPa 0,0 l/m 0 min 2 min 0 W/m 0,0 km/h (0 Bft) 97,14 %
28.04.2023 04:36 9,1 C 8,3 C 4,4 C 92 % 1012,9 hPa 0,0 l/m 0 min 2 min 0 W/m 0,0 km/h (0 Bft) 95,74 %
28.04.2023 04:38 9,2 C 8,3 C 4,4 C 92 % 1013,0 hPa 0,0 l/m 0 min 2 min 0 W/m 0,0 km/h (0 Bft) 95,74 %
28.04.2023 04:40 9,2 C 8,3 C 4,4 C 92 % 1012,9 hPa 0,0 l/m 0 min 2 min 0 W/m 0,0 km/h (0 Bft) 97,87 %
28.04.2023 04:42 9,2 C 8,3 C 4,4 C 92 % 1012,9 hPa 0,0 l/m 0 min 0 min 0 W/m 3,2 km/h (1 Bft) 97,87 %
28.04.2023 04:44 9,3 C 8,3 C 5,0 C 92 % 1012,8 hPa 0,0 l/m 0 min 2 min 0 W/m 3,2 km/h (1 Bft) 97,83 %
28.04.2023 04:46 9,3 C 8,3 C 5,0 C 93 % 1012,8 hPa 0,0 l/m 0 min 2 min 0 W/m 3,2 km/h (1 Bft) 93,62 %
28.04.2023 04:48 9,3 C 8,3 C 5,0 C 93 % 1012,7 hPa 0,0 l/m 0 min 0 min 0 W/m 3,2 km/h (1 Bft) 96,43 %
28.04.2023 04:50 9,3 C 8,3 C 5,0 C 93 % 1012,8 hPa 0,0 l/m 0 min 0 min 0 W/m 3,2 km/h (1 Bft) 95,92 %
28.04.2023 04:52 9,3 C 8,9 C 5,0 C 93 % 1012,6 hPa 0,0 l/m 0 min 0 min 0 W/m 3,2 km/h (1 Bft) 95,74 %
28.04.2023 04:54 9,4 C 8,9 C 5,0 C 93 % 1012,6 hPa 0,0 l/m 0 min 0 min 0 W/m 3,2 km/h (1 Bft) 97,87 %
28.04.2023 04:56 9,4 C 8,9 C 5,0 C 93 % 1012,6 hPa 0,0 l/m 0 min 0 min 0 W/m 3,2 km/h (1 Bft) 93,62 %
28.04.2023 04:58 9,4 C 8,9 C 5,0 C 93 % 1012,6 hPa 0,0 l/m 0 min 0 min 0 W/m 3,2 km/h (1 Bft) 97,22 %
28.04.2023 05:00 9,4 C 8,9 C 5,0 C 93 % 1012,6 hPa 0,0 l/m 0 min 0 min 0 W/m 3,2 km/h (1 Bft) 97,83 %
28.04.2023 05:02 9,4 C 8,9 C 5,0 C 93 % 1012,7 hPa 0,0 l/m 0 min 0 min 0 W/m 0,0 km/h (0 Bft) 95,74 %
28.04.2023 05:04 9,4 C 8,9 C 5,0 C 93 % 1012,7 hPa 0,0 l/m 0 min 0 min 0 W/m 3,2 km/h (1 Bft) 97,92 %
28.04.2023 05:06 9,4 C 8,9 C 5,0 C 93 % 1012,7 hPa 0,0 l/m 0 min 0 min 0 W/m 3,2 km/h (1 Bft) 94,92 %
28.04.2023 05:08 9,4 C 8,9 C 5,0 C 93 % 1012,7 hPa 0,0 l/m 0 min 0 min 0 W/m 3,2 km/h (1 Bft) 94,29 %
28.04.2023 05:10 9,4 C 8,9 C 5,0 C 93 % 1012,6 hPa 0,0 l/m 0 min 0 min 0 W/m 3,2 km/h (1 Bft) 96,36 %
28.04.2023 05:12 9,5 C 8,9 C 5,0 C 93 % 1012,6 hPa 0,0 l/m 0 min 0 min 0 W/m 3,2 km/h (1 Bft) 95,74 %
28.04.2023 05:14 9,5 C 8,9 C 5,0 C 93 % 1012,6 hPa 0,0 l/m 0 min 0 min 0 W/m 3,2 km/h (1 Bft) 93,62 %
28.04.2023 05:16 9,5 C 8,9 C 5,0 C 93 % 1012,6 hPa 0,0 l/m 0 min 0 min 0 W/m 3,2 km/h (1 Bft) 95,74 %
28.04.2023 05:18 9,5 C 8,9 C 5,0 C 93 % 1012,5 hPa 0,0 l/m 0 min 0 min 0 W/m 3,2 km/h (1 Bft) 95,74 %
28.04.2023 05:20 9,5 C 8,9 C 5,0 C 93 % 1012,5 hPa 0,0 l/m 0 min 0 min 0 W/m 6,4 km/h (2 Bft) 95,74 %
28.04.2023 05:22 9,5 C 8,9 C 5,0 C 93 % 1012,4 hPa 0,0 l/m 0 min 0 min 0 W/m 3,2 km/h (1 Bft) 95,65 %
28.04.2023 05:24 9,6 C 8,9 C 5,0 C 93 % 1012,4 hPa 0,0 l/m 0 min 0 min 0 W/m 6,4 km/h (2 Bft) 93,62 %
28.04.2023 05:26 9,6 C 8,9 C 5,0 C 93 % 1012,3 hPa 0,0 l/m 0 min 0 min 0 W/m 3,2 km/h (1 Bft) 95,74 %
28.04.2023 05:28 9,6 C 8,9 C 5,0 C 93 % 1012,3 hPa 0,0 l/m 0 min 0 min 0 W/m 3,2 km/h (1 Bft) 97,87 %
28.04.2023 05:30 9,6 C 8,9 C 5,0 C 93 % 1012,2 hPa 0,0 l/m 0 min 0 min 0 W/m 3,2 km/h (1 Bft) 95,74 %
28.04.2023 05:32 9,6 C 8,9 C 5,0 C 93 % 1012,2 hPa 0,0 l/m 0 min 0 min 0 W/m 3,2 km/h (1 Bft) 97,87 %
28.04.2023 05:34 9,6 C 8,9 C 5,0 C 93 % 1012,1 hPa 0,0 l/m 0 min 0 min 0 W/m 6,4 km/h (2 Bft) 97,83 %
28.04.2023 05:36 9,6 C 8,9 C 5,0 C 93 % 1012,0 hPa 0,0 l/m 0 min 0 min 0 W/m 6,4 km/h (2 Bft) 97,87 %
28.04.2023 05:38 9,6 C 8,9 C 5,0 C 93 % 1012,0 hPa 0,0 l/m 0 min 0 min 0 W/m 6,4 km/h (2 Bft) 95,74 %
28.04.2023 05:40 9,6 C 8,9 C 5,0 C 93 % 1012,0 hPa 0,0 l/m 0 min 0 min 0 W/m 6,4 km/h (2 Bft) 97,87 %
28.04.2023 05:42 9,6 C 8,9 C 5,0 C 93 % 1012,0 hPa 0,0 l/m 0 min 0 min 0 W/m 6,4 km/h (2 Bft) 97,87 %
28.04.2023 05:44 9,7 C 8,9 C 5,0 C 93 % 1011,9 hPa 0,0 l/m 0 min 0 min 0 W/m 6,4 km/h (2 Bft) 93,62 %
28.04.2023 05:46 9,7 C 8,9 C 5,0 C 93 % 1011,8 hPa 0,0 l/m 0 min 0 min 0 W/m 6,4 km/h (2 Bft) 97,87 %
28.04.2023 05:48 9,7 C 8,9 C 5,0 C 93 % 1011,7 hPa 0,0 l/m 0 min 0 min 0 W/m 6,4 km/h (2 Bft) 95,74 %
28.04.2023 05:50 9,7 C 8,9 C 5,0 C 93 % 1011,6 hPa 0,0 l/m 0 min 0 min 0 W/m 9,7 km/h (2 Bft) 100,00 %
28.04.2023 05:52 9,7 C 8,9 C 5,0 C 93 % 1011,6 hPa 0,0 l/m 0 min 0 min 0 W/m 9,7 km/h (2 Bft) 97,87 %
28.04.2023 05:54 9,6 C 8,9 C 5,0 C 92 % 1011,6 hPa 0,0 l/m 0 min 0 min 0 W/m 12,9 km/h (3 Bft) 97,87 %
28.04.2023 05:56 9,6 C 8,9 C 5,0 C 93 % 1011,4 hPa 0,0 l/m 0 min 0 min 0 W/m 16,1 km/h (3 Bft) 97,87 %
28.04.2023 05:58 9,6 C 8,9 C 5,0 C 93 % 1011,4 hPa 0,0 l/m 0 min 0 min 0 W/m 19,3 km/h (3 Bft) 97,87 %
28.04.2023 06:00 9,6 C 8,9 C 5,0 C 92 % 1011,4 hPa 0,0 l/m 0 min 0 min 0 W/m 12,9 km/h (3 Bft) 97,87 %
28.04.2023 06:02 9,6 C 8,9 C 5,0 C 92 % 1011,5 hPa 0,0 l/m 0 min 0 min 0 W/m 16,1 km/h (3 Bft) 97,87 %
28.04.2023 06:04 9,6 C 8,9 C 5,0 C 92 % 1011,5 hPa 0,0 l/m 0 min 0 min 0 W/m 6,4 km/h (2 Bft) 95,65 %
28.04.2023 06:08 9,7 C 8,9 C 5,0 C 92 % 1011,5 hPa 0,0 l/m 0 min 0 min 0 W/m 6,4 km/h (2 Bft) 98,95 %
28.04.2023 06:10 9,6 C 9,4 C 5,0 C 92 % 1011,6 hPa 0,0 l/m 0 min 0 min 0 W/m 6,4 km/h (2 Bft) 97,87 %
28.04.2023 06:12 9,7 C 9,4 C 5,0 C 92 % 1011,7 hPa 0,0 l/m 0 min 0 min 0 W/m 6,4 km/h (2 Bft) 95,74 %
28.04.2023 06:14 9,7 C 9,4 C 5,6 C 92 % 1011,8 hPa 0,0 l/m 0 min 0 min 0 W/m 3,2 km/h (1 Bft) 97,87 %
28.04.2023 06:16 9,7 C 9,4 C 5,6 C 92 % 1011,8 hPa 0,0 l/m 0 min 0 min 0 W/m 12,9 km/h (3 Bft) 93,62 %
28.04.2023 06:18 9,7 C 9,4 C 5,6 C 92 % 1011,8 hPa 0,0 l/m 0 min 0 min 0 W/m 6,4 km/h (2 Bft) 95,74 %
28.04.2023 06:20 9,7 C 9,4 C 5,6 C 92 % 1011,8 hPa 0,0 l/m 0 min 0 min 0 W/m 9,7 km/h (2 Bft) 95,65 %
28.04.2023 06:22 9,7 C 9,4 C 5,6 C 92 % 1011,9 hPa 0,0 l/m 0 min 0 min 0 W/m 9,7 km/h (2 Bft) 97,87 %
28.04.2023 06:24 9,7 C 9,4 C 5,6 C 92 % 1011,9 hPa 0,0 l/m 0 min 0 min 0 W/m 6,4 km/h (2 Bft) 97,87 %
28.04.2023 06:26 9,7 C 9,4 C 5,6 C 92 % 1011,9 hPa 0,0 l/m 0 min 0 min 0 W/m 3,2 km/h (1 Bft) 97,87 %
28.04.2023 06:28 9,7 C 9,4 C 5,6 C 92 % 1011,8 hPa 0,0 l/m 0 min 0 min 0 W/m 6,4 km/h (2 Bft) 95,74 %
28.04.2023 06:30 9,8 C 9,4 C 5,6 C 92 % 1011,8 hPa 0,0 l/m 0 min 0 min 0 W/m 6,4 km/h (2 Bft) 97,87 %
28.04.2023 06:32 9,8 C 9,4 C 5,6 C 92 % 1011,7 hPa 0,0 l/m 0 min 0 min 0 W/m 6,4 km/h (2 Bft) 91,49 %
28.04.2023 06:34 9,8 C 9,4 C 5,6 C 91 % 1011,7 hPa 0,0 l/m 0 min 0 min 0 W/m 6,4 km/h (2 Bft) 97,83 %
28.04.2023 06:36 9,8 C 9,4 C 5,6 C 91 % 1011,7 hPa 0,0 l/m 0 min 0 min 5 W/m 6,4 km/h (2 Bft) 97,87 %
28.04.2023 06:38 9,8 C 9,4 C 5,6 C 91 % 1011,6 hPa 0,0 l/m 0 min 0 min 5 W/m 3,2 km/h (1 Bft) 100,00 %
28.04.2023 06:40 9,8 C 9,4 C 5,6 C 91 % 1011,6 hPa 0,0 l/m 0 min 0 min 5 W/m 3,2 km/h (1 Bft) 100,00 %
28.04.2023 06:42 9,8 C 9,4 C 5,6 C 91 % 1011,6 hPa 0,0 l/m 0 min 0 min 5 W/m 6,4 km/h (2 Bft) 100,00 %
28.04.2023 06:44 9,8 C 9,4 C 5,6 C 92 % 1011,6 hPa 0,0 l/m 0 min 0 min 5 W/m 6,4 km/h (2 Bft) 100,00 %
28.04.2023 06:46 9,8 C 9,4 C 5,6 C 92 % 1011,7 hPa 0,0 l/m 0 min 0 min 6 W/m 6,4 km/h (2 Bft) 100,00 %
28.04.2023 06:48 9,8 C 9,4 C 5,6 C 92 % 1011,7 hPa 0,0 l/m 0 min 0 min 7 W/m 6,4 km/h (2 Bft) 100,00 %
28.04.2023 06:50 9,8 C 9,4 C 5,6 C 92 % 1011,7 hPa 0,0 l/m 0 min 0 min 7 W/m 9,7 km/h (2 Bft) 95,74 %
28.04.2023 06:52 9,9 C 9,4 C 5,6 C 92 % 1011,6 hPa 0,0 l/m 0 min 0 min 7 W/m 6,4 km/h (2 Bft) 100,00 %
28.04.2023 06:54 9,9 C 9,4 C 5,6 C 92 % 1011,6 hPa 0,0 l/m 0 min 0 min 7 W/m 6,4 km/h (2 Bft) 97,87 %
28.04.2023 06:56 9,9 C 9,4 C 5,6 C 91 % 1011,7 hPa 0,0 l/m 0 min 0 min 10 W/m 6,4 km/h (2 Bft) 100,00 %
28.04.2023 06:58 9,9 C 9,4 C 5,6 C 91 % 1011,7 hPa 0,0 l/m 0 min 0 min 11 W/m 6,4 km/h (2 Bft) 100,00 %
28.04.2023 07:00 9,9 C 9,4 C 6,1 C 91 % 1011,6 hPa 0,0 l/m 0 min 0 min 11 W/m 6,4 km/h (2 Bft) 100,00 %
28.04.2023 07:06 9,9 C 9,4 C 6,1 C 91 % 1011,7 hPa 0,0 l/m 0 min 0 min 8 W/m 6,4 km/h (2 Bft) 95,83 %
28.04.2023 07:08 9,9 C 9,4 C 6,1 C 91 % 1011,8 hPa 0,0 l/m 0 min 0 min 10 W/m 6,4 km/h (2 Bft) 98,08 %
28.04.2023 07:10 9,9 C 9,4 C 5,6 C 91 % 1011,6 hPa 0,0 l/m 0 min 0 min 11 W/m 9,7 km/h (2 Bft) 95,74 %
28.04.2023 07:12 10,0 C 9,4 C 5,6 C 91 % 1011,6 hPa 0,0 l/m 0 min 0 min 13 W/m 6,4 km/h (2 Bft) 95,74 %
28.04.2023 07:14 10,0 C 9,4 C 5,6 C 91 % 1011,6 hPa 0,0 l/m 0 min 0 min 15 W/m 6,4 km/h (2 Bft) 97,83 %
28.04.2023 07:16 10,0 C 9,4 C 5,6 C 91 % 1011,5 hPa 0,0 l/m 0 min 0 min 18 W/m 6,4 km/h (2 Bft) 95,74 %
28.04.2023 07:18 10,0 C 9,4 C 5,6 C 91 % 1011,4 hPa 0,0 l/m 0 min 0 min 25 W/m 12,9 km/h (3 Bft) 97,87 %
28.04.2023 07:20 10,1 C 9,4 C 5,6 C 91 % 1011,4 hPa 0,0 l/m 0 min 0 min 31 W/m 6,4 km/h (2 Bft) 95,74 %
28.04.2023 07:22 10,1 C 9,4 C 5,6 C 92 % 1011,4 hPa 0,0 l/m 0 min 0 min 33 W/m 3,2 km/h (1 Bft) 97,87 %
28.04.2023 07:24 10,1 C 9,4 C 5,6 C 92 % 1011,4 hPa 0,0 l/m 0 min 0 min 32 W/m 3,2 km/h (1 Bft) 97,87 %
28.04.2023 07:26 10,1 C 9,4 C 5,6 C 92 % 1011,4 hPa 0,0 l/m 0 min 0 min 30 W/m 6,4 km/h (2 Bft) 97,87 %
28.04.2023 07:28 10,1 C 9,4 C 5,6 C 92 % 1011,4 hPa 0,0 l/m 0 min 0 min 28 W/m 16,1 km/h (3 Bft) 97,83 %
28.04.2023 07:30 10,1 C 9,4 C 5,6 C 92 % 1011,4 hPa 0,0 l/m 0 min 0 min 26 W/m 12,9 km/h (3 Bft) 97,87 %
28.04.2023 07:32 10,1 C 9,4 C 5,6 C 92 % 1011,4 hPa 0,0 l/m 0 min 0 min 25 W/m 12,9 km/h (3 Bft) 97,87 %
28.04.2023 07:34 10,1 C 9,4 C 5,6 C 92 % 1011,4 hPa 0,0 l/m 0 min 0 min 23 W/m 6,4 km/h (2 Bft) 97,87 %
28.04.2023 07:36 10,1 C 9,4 C 5,6 C 92 % 1011,4 hPa 0,0 l/m 0 min 0 min 23 W/m 6,4 km/h (2 Bft) 97,87 %
28.04.2023 07:38 10,1 C 9,4 C 5,6 C 92 % 1011,4 hPa 0,0 l/m 0 min 0 min 25 W/m 6,4 km/h (2 Bft) 97,87 %
28.04.2023 07:40 10,1 C 9,4 C 5,6 C 92 % 1011,4 hPa 0,0 l/m 0 min 0 min 26 W/m 6,4 km/h (2 Bft) 97,87 %
28.04.2023 07:42 10,1 C 9,4 C 6,1 C 92 % 1011,4 hPa 0,0 l/m 0 min 0 min 26 W/m 12,9 km/h (3 Bft) 100,00 %
28.04.2023 07:44 10,1 C 9,4 C 6,1 C 92 % 1011,4 hPa 0,0 l/m 0 min 0 min 29 W/m 9,7 km/h (2 Bft) 100,00 %
28.04.2023 07:46 10,1 C 9,4 C 6,1 C 92 % 1011,4 hPa 0,0 l/m 0 min 0 min 32 W/m 9,7 km/h (2 Bft) 100,00 %
28.04.2023 07:48 10,1 C 9,4 C 6,1 C 92 % 1011,4 hPa 0,0 l/m 0 min 0 min 33 W/m 6,4 km/h (2 Bft) 97,87 %
28.04.2023 07:50 10,1 C 9,4 C 6,1 C 92 % 1011,4 hPa 0,0 l/m 0 min 0 min 34 W/m 9,7 km/h (2 Bft) 100,00 %
28.04.2023 07:52 10,1 C 9,4 C 6,1 C 92 % 1011,3 hPa 0,0 l/m 0 min 0 min 40 W/m 12,9 km/h (3 Bft) 100,00 %
28.04.2023 07:54 10,1 C 9,4 C 6,1 C 92 % 1011,3 hPa 0,0 l/m 0 min 0 min 46 W/m 6,4 km/h (2 Bft) 97,87 %
28.04.2023 07:56 10,1 C 10,0 C 6,1 C 92 % 1011,2 hPa 0,0 l/m 0 min 0 min 51 W/m 6,4 km/h (2 Bft) 97,83 %
28.04.2023 07:58 10,1 C 10,0 C 6,1 C 92 % 1011,2 hPa 0,0 l/m 0 min 0 min 54 W/m 9,7 km/h (2 Bft) 97,87 %
28.04.2023 08:00 10,1 C 10,0 C 6,1 C 92 % 1011,2 hPa 0,0 l/m 0 min 0 min 55 W/m 12,9 km/h (3 Bft) 97,87 %
28.04.2023 08:02 10,1 C 10,0 C 6,1 C 92 % 1011,2 hPa 0,0 l/m 0 min 0 min 54 W/m 12,9 km/h (3 Bft) 95,74 %
28.04.2023 08:04 10,1 C 10,0 C 6,1 C 92 % 1011,2 hPa 0,0 l/m 0 min 0 min 48 W/m 12,9 km/h (3 Bft) 95,83 %
28.04.2023 08:06 10,2 C 10,0 C 6,1 C 92 % 1011,1 hPa 0,0 l/m 0 min 0 min 47 W/m 12,9 km/h (3 Bft) 97,87 %
28.04.2023 08:08 10,2 C 10,0 C 6,1 C 92 % 1011,2 hPa 0,0 l/m 0 min 0 min 51 W/m 6,4 km/h (2 Bft) 97,87 %
28.04.2023 08:10 10,2 C 10,0 C 6,1 C 92 % 1011,2 hPa 0,0 l/m 0 min 0 min 55 W/m 6,4 km/h (2 Bft) 97,83 %
28.04.2023 08:12 10,2 C 10,0 C 6,7 C 92 % 1011,1 hPa 0,0 l/m 0 min 0 min 60 W/m 6,4 km/h (2 Bft) 97,87 %
28.04.2023 08:14 10,2 C 10,0 C 6,7 C 92 % 1011,1 hPa 0,0 l/m 0 min 0 min 70 W/m 6,4 km/h (2 Bft) 97,87 %
28.04.2023 08:16 10,3 C 10,6 C 6,7 C 92 % 1011,1 hPa 0,0 l/m 0 min 0 min 75 W/m 6,4 km/h (2 Bft) 97,87 %
28.04.2023 08:18 10,3 C 10,6 C 6,7 C 92 % 1011,0 hPa 0,0 l/m 0 min 0 min 74 W/m 6,4 km/h (2 Bft) 97,87 %
28.04.2023 08:20 10,3 C 10,6 C 6,7 C 92 % 1011,0 hPa 0,0 l/m 0 min 0 min 81 W/m 6,4 km/h (2 Bft) 97,87 %
28.04.2023 08:22 10,3 C 10,6 C 6,7 C 92 % 1011,2 hPa 0,0 l/m 0 min 0 min 74 W/m 9,7 km/h (2 Bft) 97,87 %
28.04.2023 08:24 10,4 C 10,6 C 6,7 C 92 % 1011,2 hPa 0,0 l/m 0 min 0 min 66 W/m 12,9 km/h (3 Bft) 97,87 %
28.04.2023 08:26 10,4 C 10,6 C 6,7 C 93 % 1011,2 hPa 0,0 l/m 0 min 0 min 56 W/m 9,7 km/h (2 Bft) 100,00 %
28.04.2023 08:28 10,4 C 10,6 C 6,7 C 92 % 1011,2 hPa 0,0 l/m 0 min 0 min 72 W/m 12,9 km/h (3 Bft) 97,87 %
28.04.2023 08:30 10,5 C 10,6 C 6,7 C 92 % 1011,2 hPa 0,0 l/m 0 min 0 min 125 W/m 9,7 km/h (2 Bft) 100,00 %
28.04.2023 08:32 10,6 C 11,1 C 6,7 C 92 % 1011,2 hPa 0,0 l/m 0 min 0 min 122 W/m 6,4 km/h (2 Bft) 97,87 %
28.04.2023 08:34 10,6 C 11,1 C 7,2 C 92 % 1011,2 hPa 0,0 l/m 0 min 0 min 93 W/m 12,9 km/h (3 Bft) 93,62 %
28.04.2023 08:36 10,6 C 11,1 C 7,2 C 92 % 1011,1 hPa 0,0 l/m 0 min 0 min 116 W/m 12,9 km/h (3 Bft) 97,87 %
28.04.2023 08:38 10,7 C 11,1 C 7,2 C 92 % 1011,2 hPa 0,0 l/m 0 min 0 min 105 W/m 16,1 km/h (3 Bft) 97,83 %
28.04.2023 08:40 10,7 C 11,1 C 7,2 C 92 % 1011,2 hPa 0,0 l/m 0 min 0 min 98 W/m 16,1 km/h (3 Bft) 97,87 %
28.04.2023 08:42 10,7 C 11,1 C 7,2 C 92 % 1011,2 hPa 0,0 l/m 0 min 0 min 116 W/m 12,9 km/h (3 Bft) 95,74 %
28.04.2023 08:44 10,7 C 11,1 C 7,2 C 92 % 1011,2 hPa 0,0 l/m 0 min 0 min 102 W/m 6,4 km/h (2 Bft) 97,87 %
28.04.2023 08:46 10,8 C 11,1 C 7,2 C 91 % 1011,1 hPa 0,0 l/m 0 min 0 min 90 W/m 6,4 km/h (2 Bft) 97,87 %
28.04.2023 08:48 10,8 C 11,1 C 7,2 C 91 % 1011,1 hPa 0,0 l/m 0 min 0 min 88 W/m 12,9 km/h (3 Bft) 97,87 %
28.04.2023 08:50 10,8 C 11,1 C 7,2 C 91 % 1011,2 hPa 0,0 l/m 0 min 0 min 92 W/m 6,4 km/h (2 Bft) 97,87 %
28.04.2023 08:52 10,9 C 11,1 C 7,2 C 91 % 1011,2 hPa 0,0 l/m 0 min 0 min 88 W/m 12,9 km/h (3 Bft) 97,83 %
28.04.2023 08:54 10,9 C 11,1 C 7,2 C 91 % 1011,2 hPa 0,0 l/m 0 min 0 min 80 W/m 6,4 km/h (2 Bft) 97,87 %
28.04.2023 08:56 10,9 C 11,1 C 7,2 C 91 % 1011,2 hPa 0,0 l/m 0 min 0 min 97 W/m 6,4 km/h (2 Bft) 95,74 %
28.04.2023 08:58 10,9 C 11,1 C 7,2 C 91 % 1011,2 hPa 0,0 l/m 0 min 0 min 129 W/m 6,4 km/h (2 Bft) 95,74 %
28.04.2023 09:00 11,0 C 11,1 C 7,2 C 90 % 1011,3 hPa 0,0 l/m 0 min 0 min 154 W/m 16,1 km/h (3 Bft) 95,74 %
28.04.2023 09:02 11,1 C 11,1 C 7,2 C 90 % 1011,3 hPa 0,0 l/m 0 min 0 min 134 W/m 12,9 km/h (3 Bft) 97,14 %
28.04.2023 09:04 11,1 C 11,1 C 7,2 C 90 % 1011,2 hPa 0,0 l/m 0 min 0 min 123 W/m 19,3 km/h (3 Bft) 96,61 %
28.04.2023 09:06 11,1 C 11,1 C 7,2 C 90 % 1011,2 hPa 0,0 l/m 0 min 0 min 145 W/m 12,9 km/h (3 Bft) 95,74 %
28.04.2023 09:08 11,2 C 11,1 C 7,2 C 90 % 1011,2 hPa 0,0 l/m 0 min 0 min 162 W/m 16,1 km/h (3 Bft) 95,74 %
28.04.2023 09:10 11,2 C 11,7 C 7,2 C 90 % 1011,1 hPa 0,0 l/m 0 min 0 min 171 W/m 12,9 km/h (3 Bft) 97,87 %
28.04.2023 09:12 11,2 C 11,7 C 7,8 C 90 % 1011,2 hPa 0,0 l/m 0 min 0 min 191 W/m 12,9 km/h (3 Bft) 93,62 %
28.04.2023 09:14 11,3 C 11,7 C 7,8 C 90 % 1011,1 hPa 0,0 l/m 0 min 0 min 197 W/m 12,9 km/h (3 Bft) 97,87 %
28.04.2023 09:16 11,3 C 11,7 C 7,8 C 90 % 1011,1 hPa 0,0 l/m 0 min 0 min 192 W/m 12,9 km/h (3 Bft) 94,29 %
28.04.2023 09:18 11,4 C 11,7 C 7,8 C 89 % 1011,0 hPa 0,0 l/m 0 min 0 min 218 W/m 19,3 km/h (3 Bft) 97,87 %
28.04.2023 09:20 11,4 C 12,2 C 7,8 C 89 % 1010,9 hPa 0,0 l/m 2 min 0 min 295 W/m 16,1 km/h (3 Bft) 97,87 %
28.04.2023 09:22 11,6 C 12,8 C 8,3 C 89 % 1011,0 hPa 0,0 l/m 2 min 0 min 350 W/m 12,9 km/h (3 Bft) 95,74 %
28.04.2023 09:24 11,6 C 12,8 C 8,3 C 89 % 1011,0 hPa 0,0 l/m 2 min 0 min 284 W/m 16,1 km/h (3 Bft) 100,00 %
28.04.2023 09:26 11,7 C 12,8 C 8,3 C 89 % 1011,1 hPa 0,0 l/m 0 min 0 min 147 W/m 12,9 km/h (3 Bft) 100,00 %
28.04.2023 09:28 11,8 C 12,8 C 8,3 C 89 % 1011,2 hPa 0,0 l/m 0 min 0 min 133 W/m 6,4 km/h (2 Bft) 100,00 %
28.04.2023 09:30 11,8 C 12,2 C 7,8 C 89 % 1011,2 hPa 0,0 l/m 0 min 0 min 174 W/m 19,3 km/h (3 Bft) 100,00 %
28.04.2023 09:32 11,8 C 12,2 C 7,8 C 89 % 1011,1 hPa 0,0 l/m 2 min 0 min 266 W/m 16,1 km/h (3 Bft) 95,74 %
28.04.2023 09:34 11,9 C 12,2 C 7,8 C 89 % 1011,2 hPa 0,0 l/m 2 min 0 min 290 W/m 16,1 km/h (3 Bft) 100,00 %
28.04.2023 09:36 11,9 C 12,2 C 7,8 C 89 % 1011,2 hPa 0,0 l/m 0 min 0 min 218 W/m 12,9 km/h (3 Bft) 97,87 %
28.04.2023 09:38 12,0 C 12,2 C 7,8 C 89 % 1011,2 hPa 0,0 l/m 0 min 0 min 194 W/m 12,9 km/h (3 Bft) 97,83 %
28.04.2023 09:40 12,1 C 12,2 C 7,8 C 89 % 1011,2 hPa 0,0 l/m 0 min 0 min 170 W/m 12,9 km/h (3 Bft) 93,62 %
28.04.2023 09:42 12,1 C 12,2 C 7,8 C 89 % 1011,3 hPa 0,0 l/m 0 min 0 min 130 W/m 16,1 km/h (3 Bft) 97,87 %
28.04.2023 09:44 12,1 C 11,7 C 7,8 C 89 % 1011,3 hPa 0,0 l/m 0 min 2 min 103 W/m 12,9 km/h (3 Bft) 97,87 %
28.04.2023 09:46 12,1 C 11,7 C 7,8 C 89 % 1011,2 hPa 0,0 l/m 0 min 2 min 119 W/m 12,9 km/h (3 Bft) 97,87 %
28.04.2023 09:48 12,1 C 11,7 C 7,2 C 89 % 1011,2 hPa 0,0 l/m 0 min 2 min 146 W/m 16,1 km/h (3 Bft) 95,74 %
28.04.2023 09:50 12,1 C 11,7 C 7,2 C 89 % 1011,1 hPa 0,0 l/m 0 min 0 min 162 W/m 12,9 km/h (3 Bft) 95,74 %
28.04.2023 09:52 12,1 C 11,7 C 7,2 C 89 % 1011,1 hPa 0,0 l/m 0 min 0 min 144 W/m 12,9 km/h (3 Bft) 95,65 %
28.04.2023 09:54 12,1 C 11,7 C 7,2 C 90 % 1011,1 hPa 0,0 l/m 0 min 0 min 141 W/m 12,9 km/h (3 Bft) 95,74 %
28.04.2023 09:56 12,1 C 11,7 C 7,2 C 90 % 1011,1 hPa 0,0 l/m 0 min 0 min 139 W/m 12,9 km/h (3 Bft) 96,00 %
28.04.2023 09:58 12,1 C 11,7 C 7,2 C 90 % 1011,1 hPa 0,2 l/m 0 min 2 min 146 W/m 16,1 km/h (3 Bft) 93,62 %
28.04.2023 10:00 12,1 C 11,7 C 7,2 C 90 % 1011,0 hPa 0,0 l/m 0 min 2 min 176 W/m 19,3 km/h (3 Bft) 95,74 %
28.04.2023 10:02 12,1 C 11,7 C 7,2 C 90 % 1011,0 hPa 0,0 l/m 0 min 0 min 200 W/m 22,5 km/h (4 Bft) 93,62 %
28.04.2023 10:04 12,1 C 11,7 C 7,2 C 91 % 1011,0 hPa 0,0 l/m 0 min 0 min 213 W/m 9,7 km/h (2 Bft) 95,65 %
28.04.2023 10:06 12,1 C 12,2 C 7,2 C 91 % 1011,0 hPa 0,0 l/m 0 min 0 min 231 W/m 9,7 km/h (2 Bft) 94,92 %
28.04.2023 10:08 12,1 C 12,2 C 7,8 C 91 % 1011,0 hPa 0,0 l/m 0 min 0 min 223 W/m 12,9 km/h (3 Bft) 97,14 %
28.04.2023 10:10 12,1 C 12,2 C 7,8 C 91 % 1011,0 hPa 0,0 l/m 0 min 0 min 232 W/m 9,7 km/h (2 Bft) 91,49 %
28.04.2023 10:12 12,2 C 12,8 C 7,8 C 91 % 1011,0 hPa 0,0 l/m 0 min 0 min 253 W/m 6,4 km/h (2 Bft) 93,62 %
28.04.2023 10:14 12,2 C 12,8 C 7,8 C 92 % 1011,0 hPa 0,0 l/m 0 min 0 min 251 W/m 12,9 km/h (3 Bft) 95,74 %
28.04.2023 10:16 12,2 C 12,8 C 7,8 C 92 % 1011,0 hPa 0,0 l/m 0 min 0 min 274 W/m 19,3 km/h (3 Bft) 95,65 %
28.04.2023 10:18 12,3 C 13,3 C 7,8 C 92 % 1010,9 hPa 0,0 l/m 0 min 0 min 265 W/m 12,9 km/h (3 Bft) 95,74 %
28.04.2023 10:20 12,3 C 12,8 C 8,3 C 92 % 1010,9 hPa 0,0 l/m 0 min 0 min 274 W/m 16,1 km/h (3 Bft) 95,74 %
28.04.2023 10:22 12,3 C 12,8 C 8,3 C 92 % 1011,0 hPa 0,0 l/m 0 min 0 min 222 W/m 19,3 km/h (3 Bft) 95,74 %
28.04.2023 10:24 12,3 C 12,8 C 8,3 C 92 % 1011,0 hPa 0,0 l/m 0 min 2 min 217 W/m 19,3 km/h (3 Bft) 95,74 %
28.04.2023 10:26 12,4 C 12,8 C 8,3 C 92 % 1011,0 hPa 0,0 l/m 0 min 2 min 213 W/m 16,1 km/h (3 Bft) 100,00 %
28.04.2023 10:28 12,4 C 12,8 C 8,3 C 92 % 1011,1 hPa 0,0 l/m 0 min 0 min 214 W/m 12,9 km/h (3 Bft) 100,00 %
28.04.2023 10:30 12,4 C 12,8 C 7,8 C 92 % 1011,1 hPa 0,0 l/m 0 min 0 min 210 W/m 12,9 km/h (3 Bft) 97,83 %
28.04.2023 10:32 12,4 C 12,8 C 8,3 C 92 % 1011,1 hPa 0,0 l/m 0 min 0 min 187 W/m 16,1 km/h (3 Bft) 100,00 %
28.04.2023 10:34 12,4 C 12,8 C 8,3 C 91 % 1011,1 hPa 0,0 l/m 0 min 0 min 174 W/m 12,9 km/h (3 Bft) 100,00 %
28.04.2023 10:36 12,5 C 12,8 C 8,3 C 91 % 1011,2 hPa 0,0 l/m 0 min 0 min 175 W/m 6,4 km/h (2 Bft) 97,87 %
28.04.2023 10:38 12,6 C 12,8 C 8,3 C 91 % 1011,2 hPa 0,0 l/m 0 min 0 min 157 W/m 12,9 km/h (3 Bft) 97,87 %
28.04.2023 10:40 12,6 C 12,8 C 8,3 C 91 % 1011,2 hPa 0,0 l/m 0 min 0 min 151 W/m 12,9 km/h (3 Bft) 100,00 %
28.04.2023 10:42 12,6 C 12,8 C 8,3 C 92 % 1011,3 hPa 0,0 l/m 0 min 0 min 155 W/m 9,7 km/h (2 Bft) 97,87 %
28.04.2023 10:44 12,6 C 12,8 C 8,9 C 91 % 1011,2 hPa 0,0 l/m 0 min 0 min 179 W/m 6,4 km/h (2 Bft) 100,00 %
28.04.2023 10:46 12,6 C 13,3 C 8,9 C 91 % 1011,2 hPa 0,0 l/m 0 min 0 min 203 W/m 6,4 km/h (2 Bft) 100,00 %
28.04.2023 10:48 12,7 C 13,3 C 8,9 C 91 % 1011,2 hPa 0,0 l/m 0 min 0 min 211 W/m 9,7 km/h (2 Bft) 97,87 %
28.04.2023 10:50 12,7 C 13,3 C 8,9 C 91 % 1011,2 hPa 0,0 l/m 0 min 0 min 202 W/m 16,1 km/h (3 Bft) 100,00 %
28.04.2023 10:52 12,7 C 13,3 C 8,9 C 91 % 1011,2 hPa 0,0 l/m 0 min 0 min 217 W/m 9,7 km/h (2 Bft) 100,00 %
28.04.2023 10:54 12,8 C 13,3 C 8,9 C 91 % 1011,1 hPa 0,0 l/m 0 min 0 min 249 W/m 12,9 km/h (3 Bft) 97,87 %
28.04.2023 10:56 12,8 C 13,3 C 8,9 C 91 % 1011,2 hPa 0,0 l/m 0 min 0 min 257 W/m 12,9 km/h (3 Bft) 100,00 %
28.04.2023 10:58 12,8 C 13,3 C 8,9 C 91 % 1011,1 hPa 0,0 l/m 0 min 0 min 259 W/m 19,3 km/h (3 Bft) 100,00 %
28.04.2023 11:00 12,9 C 13,3 C 9,4 C 91 % 1011,1 hPa 0,0 l/m 0 min 0 min 298 W/m 16,1 km/h (3 Bft) 97,87 %
28.04.2023 11:02 12,9 C 13,9 C 9,4 C 91 % 1011,1 hPa 0,0 l/m 0 min 0 min 299 W/m 12,9 km/h (3 Bft) 100,00 %
28.04.2023 11:04 13,0 C 13,9 C 9,4 C 91 % 1011,1 hPa 0,0 l/m 0 min 0 min 264 W/m 12,9 km/h (3 Bft) 100,00 %
28.04.2023 11:06 13,1 C 13,9 C 9,4 C 90 % 1011,2 hPa 0,0 l/m 0 min 0 min 218 W/m 16,1 km/h (3 Bft) 94,83 %
28.04.2023 11:08 13,1 C 13,9 C 9,4 C 90 % 1011,1 hPa 0,0 l/m 0 min 0 min 191 W/m 6,4 km/h (2 Bft) 100,00 %
28.04.2023 11:10 13,1 C 13,3 C 9,4 C 90 % 1011,1 hPa 0,0 l/m 0 min 0 min 159 W/m 9,7 km/h (2 Bft) 100,00 %
28.04.2023 11:12 13,2 C 13,3 C 9,4 C 90 % 1011,1 hPa 0,0 l/m 0 min 0 min 165 W/m 12,9 km/h (3 Bft) 97,87 %
28.04.2023 11:14 13,2 C 13,3 C 9,4 C 90 % 1011,1 hPa 0,0 l/m 0 min 0 min 167 W/m 12,9 km/h (3 Bft) 100,00 %
28.04.2023 11:16 13,2 C 13,3 C 9,4 C 90 % 1011,1 hPa 0,0 l/m 0 min 0 min 158 W/m 12,9 km/h (3 Bft) 100,00 %
28.04.2023 11:18 13,3 C 13,3 C 9,4 C 90 % 1011,1 hPa 0,0 l/m 0 min 0 min 151 W/m 9,7 km/h (2 Bft) 95,74 %
28.04.2023 11:20 13,3 C 13,3 C 9,4 C 90 % 1011,1 hPa 0,0 l/m 0 min 0 min 160 W/m 12,9 km/h (3 Bft) 95,74 %
28.04.2023 11:22 13,3 C 13,3 C 8,9 C 90 % 1011,0 hPa 0,0 l/m 0 min 0 min 169 W/m 12,9 km/h (3 Bft) 97,87 %
28.04.2023 11:24 13,3 C 13,3 C 8,9 C 90 % 1011,0 hPa 0,0 l/m 0 min 0 min 178 W/m 6,4 km/h (2 Bft) 95,65 %
28.04.2023 11:26 13,3 C 13,3 C 8,9 C 90 % 1011,1 hPa 0,0 l/m 0 min 0 min 196 W/m 16,1 km/h (3 Bft) 95,74 %
28.04.2023 11:28 13,3 C 13,3 C 8,9 C 90 % 1011,1 hPa 0,0 l/m 0 min 0 min 212 W/m 9,7 km/h (2 Bft) 95,74 %
28.04.2023 11:30 13,4 C 13,3 C 8,9 C 90 % 1011,1 hPa 0,0 l/m 0 min 0 min 210 W/m 12,9 km/h (3 Bft) 95,74 %
28.04.2023 11:32 13,4 C 13,3 C 8,9 C 90 % 1011,1 hPa 0,0 l/m 0 min 0 min 164 W/m 6,4 km/h (2 Bft) 97,87 %
28.04.2023 11:34 13,4 C 12,8 C 8,9 C 90 % 1011,1 hPa 0,0 l/m 0 min 0 min 130 W/m 16,1 km/h (3 Bft) 97,87 %
28.04.2023 11:36 13,4 C 12,8 C 8,9 C 90 % 1011,1 hPa 0,0 l/m 0 min 0 min 147 W/m 12,9 km/h (3 Bft) 97,87 %
28.04.2023 11:38 13,4 C 13,3 C 8,9 C 90 % 1011,1 hPa 0,0 l/m 0 min 0 min 161 W/m 12,9 km/h (3 Bft) 95,65 %
28.04.2023 11:40 13,4 C 13,3 C 8,9 C 90 % 1011,1 hPa 0,0 l/m 0 min 0 min 161 W/m 9,7 km/h (2 Bft) 97,87 %
28.04.2023 11:42 13,4 C 13,3 C 8,9 C 90 % 1011,1 hPa 0,0 l/m 0 min 0 min 158 W/m 9,7 km/h (2 Bft) 97,87 %
28.04.2023 11:44 13,4 C 13,3 C 9,4 C 90 % 1011,0 hPa 0,0 l/m 0 min 0 min 160 W/m 6,4 km/h (2 Bft) 97,87 %
28.04.2023 11:46 13,4 C 13,3 C 9,4 C 91 % 1011,1 hPa 0,0 l/m 0 min 0 min 153 W/m 16,1 km/h (3 Bft) 95,83 %
28.04.2023 11:48 13,4 C 13,3 C 9,4 C 91 % 1011,0 hPa 0,0 l/m 0 min 0 min 143 W/m 12,9 km/h (3 Bft) 97,87 %
28.04.2023 11:50 13,4 C 13,3 C 9,4 C 91 % 1011,1 hPa 0,0 l/m 0 min 0 min 130 W/m 12,9 km/h (3 Bft) 95,74 %
28.04.2023 11:52 13,4 C 13,3 C 9,4 C 91 % 1011,0 hPa 0,0 l/m 0 min 0 min 165 W/m 6,4 km/h (2 Bft) 95,74 %
28.04.2023 11:54 13,5 C 13,3 C 9,4 C 91 % 1011,0 hPa 0,0 l/m 0 min 0 min 135 W/m 6,4 km/h (2 Bft) 93,48 %
28.04.2023 11:56 13,5 C 13,3 C 9,4 C 91 % 1011,1 hPa 0,0 l/m 0 min 0 min 111 W/m 12,9 km/h (3 Bft) 95,74 %
28.04.2023 11:58 13,5 C 13,3 C 9,4 C 91 % 1011,1 hPa 0,0 l/m 0 min 0 min 131 W/m 9,7 km/h (2 Bft) 97,87 %
28.04.2023 12:00 13,6 C 13,3 C 9,4 C 91 % 1011,0 hPa 0,0 l/m 0 min 0 min 104 W/m 12,9 km/h (3 Bft) 97,87 %
28.04.2023 12:02 13,6 C 13,3 C 9,4 C 91 % 1011,0 hPa 0,0 l/m 0 min 0 min 120 W/m 12,9 km/h (3 Bft) 97,87 %
28.04.2023 12:04 13,6 C 13,3 C 9,4 C 92 % 1011,0 hPa 0,0 l/m 0 min 0 min 113 W/m 6,4 km/h (2 Bft) 97,92 %
28.04.2023 12:08 13,6 C 13,3 C 9,4 C 92 % 1010,9 hPa 0,0 l/m 0 min 0 min 119 W/m 9,7 km/h (2 Bft) 97,85 %
28.04.2023 12:10 13,7 C 13,3 C 9,4 C 92 % 1011,0 hPa 0,0 l/m 0 min 0 min 111 W/m 12,9 km/h (3 Bft) 97,87 %
28.04.2023 12:12 13,7 C 13,3 C 9,4 C 92 % 1011,0 hPa 0,0 l/m 0 min 0 min 116 W/m 16,1 km/h (3 Bft) 95,74 %
28.04.2023 12:14 13,7 C 13,3 C 9,4 C 92 % 1011,0 hPa 0,0 l/m 0 min 0 min 116 W/m 6,4 km/h (2 Bft) 97,87 %
28.04.2023 12:16 13,7 C 13,3 C 9,4 C 92 % 1011,0 hPa 0,0 l/m 0 min 0 min 96 W/m 9,7 km/h (2 Bft) 97,87 %
28.04.2023 12:18 13,7 C 13,3 C 9,4 C 93 % 1011,0 hPa 0,0 l/m 0 min 0 min 95 W/m 9,7 km/h (2 Bft) 97,87 %
28.04.2023 12:20 13,7 C 13,3 C 9,4 C 93 % 1011,0 hPa 0,0 l/m 0 min 0 min 98 W/m 9,7 km/h (2 Bft) 97,83 %
28.04.2023 12:22 13,7 C 13,3 C 9,4 C 93 % 1011,0 hPa 0,0 l/m 0 min 0 min 137 W/m 12,9 km/h (3 Bft) 97,87 %
28.04.2023 12:24 13,8 C 13,3 C 9,4 C 93 % 1011,0 hPa 0,0 l/m 0 min 0 min 149 W/m 9,7 km/h (2 Bft) 97,87 %
28.04.2023 12:26 13,8 C 13,3 C 9,4 C 93 % 1010,9 hPa 0,0 l/m 0 min 0 min 138 W/m 9,7 km/h (2 Bft) 95,74 %
28.04.2023 12:28 13,8 C 13,9 C 9,4 C 93 % 1010,9 hPa 0,0 l/m 0 min 0 min 138 W/m 9,7 km/h (2 Bft) 100,00 %
28.04.2023 12:30 13,9 C 13,9 C 9,4 C 93 % 1011,0 hPa 0,0 l/m 0 min 0 min 148 W/m 9,7 km/h (2 Bft) 100,00 %
28.04.2023 12:32 13,9 C 13,9 C 9,4 C 94 % 1010,9 hPa 0,0 l/m 0 min 0 min 139 W/m 6,4 km/h (2 Bft) 100,00 %
28.04.2023 12:34 14,0 C 13,9 C 9,4 C 94 % 1010,9 hPa 0,0 l/m 0 min 0 min 137 W/m 9,7 km/h (2 Bft) 100,00 %
28.04.2023 12:36 14,1 C 13,9 C 9,4 C 94 % 1010,9 hPa 0,0 l/m 0 min 0 min 143 W/m 19,3 km/h (3 Bft) 95,65 %
28.04.2023 12:38 14,1 C 13,9 C 10,0 C 94 % 1011,0 hPa 0,0 l/m 0 min 0 min 164 W/m 12,9 km/h (3 Bft) 100,00 %
28.04.2023 12:40 14,1 C 14,4 C 10,0 C 94 % 1010,9 hPa 0,0 l/m 0 min 0 min 176 W/m 12,9 km/h (3 Bft) 100,00 %
28.04.2023 12:42 14,2 C 14,4 C 10,0 C 94 % 1010,9 hPa 0,0 l/m 0 min 0 min 141 W/m 16,1 km/h (3 Bft) 95,74 %
28.04.2023 12:44 14,2 C 14,4 C 10,0 C 94 % 1010,9 hPa 0,0 l/m 0 min 0 min 125 W/m 6,4 km/h (2 Bft) 97,87 %
28.04.2023 12:46 14,3 C 14,4 C 10,0 C 94 % 1010,9 hPa 0,0 l/m 0 min 0 min 122 W/m 12,9 km/h (3 Bft) 97,87 %
28.04.2023 12:48 14,3 C 13,9 C 10,0 C 94 % 1010,9 hPa 0,0 l/m 0 min 0 min 99 W/m 19,3 km/h (3 Bft) 95,74 %
28.04.2023 12:50 14,3 C 13,9 C 10,0 C 94 % 1010,9 hPa 0,0 l/m 0 min 0 min 88 W/m 3,2 km/h (1 Bft) 97,83 %
28.04.2023 12:52 14,3 C 13,9 C 10,0 C 94 % 1011,0 hPa 0,0 l/m 0 min 0 min 118 W/m 12,9 km/h (3 Bft) 95,74 %
28.04.2023 12:54 14,3 C 13,9 C 10,0 C 94 % 1010,9 hPa 0,0 l/m 0 min 0 min 118 W/m 16,1 km/h (3 Bft) 97,87 %
28.04.2023 12:56 14,3 C 13,9 C 10,0 C 94 % 1010,9 hPa 0,0 l/m 0 min 0 min 126 W/m 12,9 km/h (3 Bft) 97,87 %
28.04.2023 12:58 14,3 C 14,4 C 10,0 C 94 % 1010,9 hPa 0,0 l/m 0 min 0 min 164 W/m 16,1 km/h (3 Bft) 97,87 %
28.04.2023 13:00 14,3 C 14,4 C 10,0 C 94 % 1010,8 hPa 0,0 l/m 0 min 0 min 185 W/m 12,9 km/h (3 Bft) 97,87 %
28.04.2023 13:02 14,4 C 14,4 C 10,6 C 94 % 1010,9 hPa 0,0 l/m 0 min 0 min 193 W/m 16,1 km/h (3 Bft) 97,87 %
28.04.2023 13:04 14,4 C 14,4 C 10,6 C 94 % 1010,8 hPa 0,0 l/m 0 min 0 min 128 W/m 6,4 km/h (2 Bft) 97,87 %
28.04.2023 13:06 14,5 C 14,4 C 10,6 C 94 % 1010,9 hPa 0,0 l/m 0 min 0 min 120 W/m 12,9 km/h (3 Bft) 97,87 %
28.04.2023 13:08 14,5 C 14,4 C 10,6 C 94 % 1010,8 hPa 0,0 l/m 0 min 0 min 131 W/m 3,2 km/h (1 Bft) 93,62 %
28.04.2023 13:10 14,6 C 14,4 C 10,6 C 95 % 1010,9 hPa 0,0 l/m 0 min 0 min 120 W/m 9,7 km/h (2 Bft) 97,87 %
28.04.2023 13:12 14,6 C 14,4 C 10,6 C 94 % 1011,0 hPa 0,0 l/m 0 min 0 min 101 W/m 12,9 km/h (3 Bft) 97,87 %
28.04.2023 13:14 14,6 C 14,4 C 10,6 C 94 % 1010,9 hPa 0,0 l/m 0 min 0 min 98 W/m 19,3 km/h (3 Bft) 97,87 %
28.04.2023 13:16 14,6 C 14,4 C 10,6 C 94 % 1010,9 hPa 0,0 l/m 0 min 0 min 136 W/m 6,4 km/h (2 Bft) 97,83 %
28.04.2023 13:18 14,6 C 14,4 C 10,0 C 94 % 1010,9 hPa 0,0 l/m 0 min 0 min 110 W/m 9,7 km/h (2 Bft) 93,62 %
28.04.2023 13:20 14,6 C 13,9 C 10,0 C 94 % 1010,9 hPa 0,0 l/m 0 min 0 min 83 W/m 12,9 km/h (3 Bft) 95,74 %
28.04.2023 13:22 14,6 C 13,9 C 10,0 C 94 % 1010,8 hPa 0,0 l/m 0 min 0 min 91 W/m 16,1 km/h (3 Bft) 95,74 %
28.04.2023 13:24 14,6 C 13,9 C 10,0 C 94 % 1010,9 hPa 0,0 l/m 0 min 2 min 88 W/m 16,1 km/h (3 Bft) 97,87 %
28.04.2023 13:26 14,6 C 13,9 C 9,4 C 94 % 1010,9 hPa 0,0 l/m 0 min 2 min 69 W/m 12,9 km/h (3 Bft) 97,87 %
28.04.2023 13:28 14,6 C 13,9 C 9,4 C 94 % 1010,9 hPa 0,0 l/m 0 min 2 min 73 W/m 12,9 km/h (3 Bft) 97,87 %
28.04.2023 13:30 14,6 C 13,9 C 9,4 C 95 % 1010,9 hPa 0,0 l/m 0 min 0 min 112 W/m 12,9 km/h (3 Bft) 97,87 %
28.04.2023 13:32 14,5 C 14,4 C 10,0 C 94 % 1010,8 hPa 0,0 l/m 0 min 0 min 202 W/m 16,1 km/h (3 Bft) 97,83 %
28.04.2023 13:34 14,5 C 14,4 C 10,0 C 95 % 1010,7 hPa 0,0 l/m 0 min 0 min 335 W/m 9,7 km/h (2 Bft) 95,74 %
28.04.2023 13:36 14,6 C 15,0 C 10,0 C 95 % 1010,7 hPa 0,0 l/m 0 min 0 min 355 W/m 6,4 km/h (2 Bft) 97,87 %
28.04.2023 13:38 14,6 C 15,6 C 10,6 C 95 % 1010,8 hPa 0,0 l/m 2 min 0 min 443 W/m 12,9 km/h (3 Bft) 100,00 %
28.04.2023 13:40 14,7 C 15,6 C 10,6 C 95 % 1010,7 hPa 0,0 l/m 2 min 0 min 409 W/m 9,7 km/h (2 Bft) 100,00 %
28.04.2023 13:42 14,8 C 15,6 C 10,6 C 95 % 1010,7 hPa 0,0 l/m 0 min 0 min 296 W/m 6,4 km/h (2 Bft) 100,00 %
28.04.2023 13:44 14,8 C 15,6 C 10,6 C 95 % 1010,7 hPa 0,0 l/m 0 min 0 min 314 W/m 9,7 km/h (2 Bft) 100,00 %
28.04.2023 13:46 14,9 C 16,1 C 11,1 C 95 % 1010,7 hPa 0,0 l/m 0 min 0 min 381 W/m 6,4 km/h (2 Bft) 97,87 %
28.04.2023 13:48 14,9 C 16,1 C 11,1 C 95 % 1010,7 hPa 0,0 l/m 2 min 0 min 396 W/m 9,7 km/h (2 Bft) 97,87 %
28.04.2023 13:50 15,0 C 16,1 C 11,1 C 95 % 1010,7 hPa 0,0 l/m 0 min 0 min 302 W/m 12,9 km/h (3 Bft) 97,87 %
28.04.2023 13:52 15,1 C 16,1 C 11,1 C 95 % 1010,7 hPa 0,0 l/m 0 min 0 min 296 W/m 12,9 km/h (3 Bft) 97,87 %
28.04.2023 13:54 15,1 C 16,1 C 11,7 C 95 % 1010,7 hPa 0,0 l/m 0 min 0 min 298 W/m 6,4 km/h (2 Bft) 93,62 %
28.04.2023 13:56 15,2 C 16,7 C 11,7 C 95 % 1010,7 hPa 0,0 l/m 0 min 0 min 321 W/m 12,9 km/h (3 Bft) 95,74 %
28.04.2023 13:58 15,3 C 17,2 C 12,2 C 95 % 1010,7 hPa 0,0 l/m 2 min 0 min 411 W/m 9,7 km/h (2 Bft) 95,65 %
28.04.2023 14:00 15,5 C 17,8 C 12,2 C 95 % 1010,7 hPa 0,0 l/m 2 min 0 min 449 W/m 6,4 km/h (2 Bft) 91,49 %
28.04.2023 14:02 15,7 C 18,9 C 12,8 C 95 % 1010,6 hPa 0,0 l/m 2 min 0 min 473 W/m 9,7 km/h (2 Bft) 95,74 %
28.04.2023 14:04 15,8 C 18,3 C 12,8 C 95 % 1010,7 hPa 0,0 l/m 2 min 0 min 461 W/m 16,1 km/h (3 Bft) 95,83 %
28.04.2023 14:06 16,0 C 18,3 C 12,8 C 94 % 1010,6 hPa 0,0 l/m 2 min 0 min 433 W/m 12,9 km/h (3 Bft) 93,62 %
28.04.2023 14:08 16,1 C 18,3 C 12,8 C 94 % 1010,7 hPa 0,0 l/m 2 min 0 min 447 W/m 9,7 km/h (2 Bft) 95,74 %
28.04.2023 14:10 16,2 C 18,9 C 13,3 C 93 % 1010,6 hPa 0,0 l/m 2 min 0 min 414 W/m 6,4 km/h (2 Bft) 93,62 %
28.04.2023 14:12 16,3 C 18,3 C 13,3 C 93 % 1010,7 hPa 0,0 l/m 2 min 0 min 417 W/m 9,7 km/h (2 Bft) 95,65 %
28.04.2023 14:14 16,5 C 18,9 C 13,3 C 92 % 1010,6 hPa 0,0 l/m 2 min 0 min 460 W/m 6,4 km/h (2 Bft) 95,74 %
28.04.2023 14:16 16,7 C 20,6 C 13,9 C 92 % 1010,6 hPa 0,0 l/m 2 min 0 min 549 W/m 12,9 km/h (3 Bft) 94,29 %
28.04.2023 14:18 16,9 C 22,2 C 13,9 C 91 % 1010,5 hPa 0,0 l/m 2 min 0 min 554 W/m 9,7 km/h (2 Bft) 98,18 %
28.04.2023 14:20 17,1 C 22,8 C 13,9 C 90 % 1010,5 hPa 0,0 l/m 2 min 0 min 601 W/m 6,4 km/h (2 Bft) 95,74 %
28.04.2023 14:22 17,4 C 22,8 C 14,4 C 89 % 1010,5 hPa 0,0 l/m 2 min 0 min 803 W/m 16,1 km/h (3 Bft) 96,00 %
28.04.2023 14:24 17,6 C 21,7 C 13,9 C 88 % 1010,5 hPa 0,0 l/m 2 min 0 min 551 W/m 9,7 km/h (2 Bft) 95,74 %
28.04.2023 14:26 17,8 C 21,7 C 14,4 C 87 % 1010,6 hPa 0,0 l/m 2 min 0 min 570 W/m 12,9 km/h (3 Bft) 95,65 %
28.04.2023 14:28 17,9 C 22,2 C 14,4 C 87 % 1010,5 hPa 0,0 l/m 2 min 0 min 542 W/m 9,7 km/h (2 Bft) 93,62 %
28.04.2023 14:30 18,1 C 23,3 C 14,4 C 86 % 1010,5 hPa 0,0 l/m 2 min 0 min 459 W/m 12,9 km/h (3 Bft) 93,62 %
28.04.2023 14:32 18,2 C 21,7 C 14,4 C 85 % 1010,5 hPa 0,0 l/m 2 min 0 min 431 W/m 12,9 km/h (3 Bft) 97,87 %
28.04.2023 14:34 18,2 C 20,6 C 13,9 C 83 % 1010,6 hPa 0,0 l/m 0 min 0 min 322 W/m 16,1 km/h (3 Bft) 100,00 %
28.04.2023 14:36 18,3 C 20,6 C 14,4 C 84 % 1010,5 hPa 0,0 l/m 0 min 0 min 330 W/m 12,9 km/h (3 Bft) 97,87 %
28.04.2023 14:38 18,3 C 21,1 C 13,9 C 84 % 1010,5 hPa 0,0 l/m 2 min 0 min 437 W/m 12,9 km/h (3 Bft) 100,00 %
28.04.2023 14:40 18,4 C 21,1 C 14,4 C 84 % 1010,5 hPa 0,0 l/m 2 min 0 min 465 W/m 0,0 km/h (0 Bft) 100,00 %
28.04.2023 14:42 18,6 C 22,8 C 14,4 C 84 % 1010,5 hPa 0,0 l/m 2 min 0 min 454 W/m 16,1 km/h (3 Bft) 100,00 %
28.04.2023 14:44 18,7 C 21,7 C 14,4 C 83 % 1010,5 hPa 0,0 l/m 2 min 0 min 427 W/m 12,9 km/h (3 Bft) 97,87 %
28.04.2023 14:46 18,7 C 20,6 C 13,9 C 82 % 1010,4 hPa 0,0 l/m 0 min 0 min 342 W/m 6,4 km/h (2 Bft) 95,74 %
28.04.2023 14:48 18,8 C 21,1 C 14,4 C 83 % 1010,3 hPa 0,0 l/m 0 min 0 min 334 W/m 6,4 km/h (2 Bft) 97,87 %
28.04.2023 14:50 18,9 C 21,1 C 14,4 C 82 % 1010,4 hPa 0,0 l/m 0 min 0 min 345 W/m 9,7 km/h (2 Bft) 100,00 %
28.04.2023 14:52 18,9 C 20,6 C 14,4 C 81 % 1010,3 hPa 0,0 l/m 0 min 0 min 368 W/m 9,7 km/h (2 Bft) 100,00 %
28.04.2023 14:54 18,9 C 20,0 C 14,4 C 81 % 1010,3 hPa 0,0 l/m 2 min 0 min 381 W/m 6,4 km/h (2 Bft) 100,00 %
28.04.2023 14:56 18,9 C 20,0 C 14,4 C 81 % 1010,4 hPa 0,0 l/m 0 min 0 min 358 W/m 9,7 km/h (2 Bft) 97,83 %
28.04.2023 14:58 18,8 C 19,4 C 14,4 C 80 % 1010,4 hPa 0,0 l/m 0 min 0 min 315 W/m 12,9 km/h (3 Bft) 100,00 %
28.04.2023 15:00 18,8 C 18,9 C 13,9 C 81 % 1010,3 hPa 0,0 l/m 0 min 0 min 288 W/m 12,9 km/h (3 Bft) 100,00 %
28.04.2023 15:02 18,8 C 19,4 C 13,9 C 81 % 1010,3 hPa 0,0 l/m 0 min 0 min 332 W/m 9,7 km/h (2 Bft) 95,74 %
28.04.2023 15:04 18,8 C 20,0 C 14,4 C 81 % 1010,3 hPa 0,0 l/m 2 min 0 min 372 W/m 6,4 km/h (2 Bft) 100,00 %
28.04.2023 15:06 18,9 C 20,0 C 14,4 C 81 % 1010,3 hPa 0,0 l/m 2 min 0 min 454 W/m 6,4 km/h (2 Bft) 100,00 %
28.04.2023 15:08 18,9 C 20,0 C 14,4 C 81 % 1010,3 hPa 0,0 l/m 2 min 0 min 369 W/m 9,7 km/h (2 Bft) 100,00 %
28.04.2023 15:10 18,9 C 20,0 C 14,4 C 80 % 1010,2 hPa 0,0 l/m 2 min 0 min 380 W/m 12,9 km/h (3 Bft) 97,87 %
28.04.2023 15:12 18,9 C 21,1 C 14,4 C 80 % 1010,2 hPa 0,0 l/m 2 min 0 min 430 W/m 9,7 km/h (2 Bft) 100,00 %
28.04.2023 15:14 19,1 C 21,1 C 15,0 C 80 % 1010,1 hPa 0,0 l/m 2 min 0 min 480 W/m 19,3 km/h (3 Bft) 100,00 %
28.04.2023 15:16 19,1 C 20,6 C 15,0 C 79 % 1010,2 hPa 0,0 l/m 2 min 0 min 380 W/m 16,1 km/h (3 Bft) 100,00 %
28.04.2023 15:18 19,2 C 20,6 C 15,0 C 78 % 1010,2 hPa 0,0 l/m 2 min 0 min 366 W/m 16,1 km/h (3 Bft) 100,00 %
28.04.2023 15:20 19,2 C 20,0 C 15,0 C 78 % 1010,2 hPa 0,0 l/m 2 min 0 min 385 W/m 12,9 km/h (3 Bft) 97,87 %
28.04.2023 15:22 19,3 C 20,0 C 15,0 C 78 % 1010,2 hPa 0,0 l/m 2 min 0 min 388 W/m 6,4 km/h (2 Bft) 100,00 %
28.04.2023 15:24 19,3 C 20,6 C 15,0 C 78 % 1010,2 hPa 0,0 l/m 2 min 0 min 373 W/m 12,9 km/h (3 Bft) 100,00 %
28.04.2023 15:26 19,4 C 20,0 C 15,0 C 78 % 1010,1 hPa 0,0 l/m 2 min 0 min 385 W/m 16,1 km/h (3 Bft) 100,00 %
28.04.2023 15:28 19,3 C 20,0 C 15,0 C 77 % 1010,2 hPa 0,0 l/m 2 min 0 min 367 W/m 12,9 km/h (3 Bft) 97,87 %
28.04.2023 15:30 19,3 C 20,0 C 15,0 C 78 % 1010,1 hPa 0,0 l/m 2 min 0 min 380 W/m 12,9 km/h (3 Bft) 100,00 %
28.04.2023 15:32 19,3 C 20,0 C 15,0 C 77 % 1010,2 hPa 0,0 l/m 2 min 0 min 396 W/m 25,7 km/h (4 Bft) 97,87 %
28.04.2023 15:34 19,3 C 20,6 C 15,0 C 77 % 1010,1 hPa 0,0 l/m 2 min 0 min 418 W/m 16,1 km/h (3 Bft) 100,00 %
28.04.2023 15:36 19,3 C 21,1 C 15,0 C 77 % 1010,1 hPa 0,0 l/m 2 min 0 min 475 W/m 25,7 km/h (4 Bft) 100,00 %
28.04.2023 15:38 19,5 C 21,7 C 15,6 C 78 % 1010,1 hPa 0,0 l/m 2 min 0 min 512 W/m 12,9 km/h (3 Bft) 100,00 %
28.04.2023 15:40 19,7 C 22,2 C 15,6 C 78 % 1010,1 hPa 0,0 l/m 2 min 0 min 371 W/m 12,9 km/h (3 Bft) 100,00 %
28.04.2023 15:42 19,7 C 20,6 C 15,0 C 77 % 1010,0 hPa 0,0 l/m 0 min 0 min 326 W/m 22,5 km/h (4 Bft) 100,00 %
28.04.2023 15:44 19,7 C 20,0 C 15,0 C 76 % 1010,0 hPa 0,0 l/m 0 min 0 min 306 W/m 16,1 km/h (3 Bft) 100,00 %
28.04.2023 15:46 19,7 C 20,6 C 15,0 C 76 % 1010,0 hPa 0,0 l/m 2 min 0 min 368 W/m 19,3 km/h (3 Bft) 100,00 %
28.04.2023 15:48 19,7 C 22,8 C 15,0 C 76 % 1010,0 hPa 0,0 l/m 2 min 0 min 623 W/m 19,3 km/h (3 Bft) 97,87 %
28.04.2023 15:50 19,8 C 21,7 C 15,6 C 77 % 1010,0 hPa 0,0 l/m 2 min 0 min 587 W/m 16,1 km/h (3 Bft) 95,65 %
28.04.2023 15:52 19,8 C 21,1 C 15,0 C 76 % 1010,1 hPa 0,0 l/m 0 min 0 min 257 W/m 25,7 km/h (4 Bft) 97,87 %
28.04.2023 15:54 19,9 C 22,2 C 15,6 C 76 % 1010,0 hPa 0,0 l/m 0 min 0 min 258 W/m 12,9 km/h (3 Bft) 100,00 %
28.04.2023 15:56 20,0 C 21,7 C 15,6 C 77 % 1010,0 hPa 0,0 l/m 0 min 0 min 282 W/m 22,5 km/h (4 Bft) 97,87 %
28.04.2023 15:58 20,0 C 21,1 C 15,0 C 76 % 1010,0 hPa 0,0 l/m 0 min 0 min 248 W/m 12,9 km/h (3 Bft) 95,74 %
28.04.2023 16:00 19,9 C 20,0 C 15,0 C 76 % 1010,0 hPa 0,0 l/m 0 min 0 min 186 W/m 16,1 km/h (3 Bft) 95,74 %
28.04.2023 16:02 19,8 C 19,4 C 14,4 C 75 % 1010,0 hPa 0,0 l/m 0 min 0 min 218 W/m 16,1 km/h (3 Bft) 100,00 %
28.04.2023 16:04 19,6 C 18,9 C 14,4 C 75 % 1010,0 hPa 0,0 l/m 0 min 0 min 181 W/m 16,1 km/h (3 Bft) 100,00 %
28.04.2023 16:06 19,5 C 20,0 C 14,4 C 76 % 1010,0 hPa 0,0 l/m 0 min 0 min 226 W/m 12,9 km/h (3 Bft) 98,08 %
28.04.2023 16:08 19,4 C 21,1 C 14,4 C 75 % 1010,1 hPa 0,0 l/m 2 min 0 min 831 W/m 22,5 km/h (4 Bft) 95,74 %
28.04.2023 16:10 19,5 C 21,1 C 15,0 C 76 % 1010,0 hPa 0,0 l/m 2 min 0 min 592 W/m 12,9 km/h (3 Bft) 97,37 %
28.04.2023 16:12 19,6 C 21,1 C 15,0 C 75 % 1010,0 hPa 0,0 l/m 0 min 0 min 287 W/m 16,1 km/h (3 Bft) 96,61 %
28.04.2023 16:14 19,7 C 22,2 C 15,0 C 76 % 1010,0 hPa 0,0 l/m 2 min 0 min 738 W/m 22,5 km/h (4 Bft) 95,74 %
28.04.2023 16:16 19,8 C 21,7 C 15,0 C 75 % 1010,0 hPa 0,0 l/m 2 min 0 min 822 W/m 19,3 km/h (3 Bft) 97,14 %
28.04.2023 16:18 19,8 C 21,1 C 15,0 C 74 % 1010,1 hPa 0,0 l/m 2 min 0 min 477 W/m 19,3 km/h (3 Bft) 93,62 %
28.04.2023 16:20 19,8 C 21,1 C 15,0 C 74 % 1010,0 hPa 0,0 l/m 2 min 0 min 370 W/m 16,1 km/h (3 Bft) 93,62 %
28.04.2023 16:22 19,8 C 20,6 C 15,0 C 74 % 1010,0 hPa 0,0 l/m 2 min 0 min 327 W/m 22,5 km/h (4 Bft) 89,13 %
28.04.2023 16:24 19,8 C 20,6 C 15,0 C 73 % 1010,1 hPa 0,0 l/m 2 min 0 min 316 W/m 22,5 km/h (4 Bft) 93,62 %
28.04.2023 16:26 19,7 C 20,0 C 15,0 C 73 % 1010,0 hPa 0,0 l/m 0 min 0 min 275 W/m 16,1 km/h (3 Bft) 93,62 %
28.04.2023 16:28 19,7 C 19,4 C 15,0 C 74 % 1010,1 hPa 0,0 l/m 0 min 0 min 173 W/m 12,9 km/h (3 Bft) 93,62 %
28.04.2023 16:30 19,6 C 18,9 C 15,0 C 74 % 1010,0 hPa 0,0 l/m 0 min 0 min 154 W/m 22,5 km/h (4 Bft) 93,62 %
28.04.2023 16:32 19,5 C 18,9 C 14,4 C 74 % 1010,1 hPa 0,0 l/m 0 min 0 min 130 W/m 22,5 km/h (4 Bft) 91,49 %
28.04.2023 16:34 19,4 C 18,3 C 14,4 C 74 % 1010,1 hPa 0,0 l/m 0 min 0 min 124 W/m 16,1 km/h (3 Bft) 91,49 %
28.04.2023 16:36 19,2 C 18,3 C 13,9 C 74 % 1010,1 hPa 0,0 l/m 0 min 0 min 90 W/m 16,1 km/h (3 Bft) 93,48 %
28.04.2023 16:38 19,1 C 17,8 C 13,9 C 75 % 1010,2 hPa 0,0 l/m 0 min 0 min 73 W/m 19,3 km/h (3 Bft) 93,62 %
28.04.2023 16:40 18,9 C 17,8 C 13,9 C 76 % 1010,2 hPa 0,0 l/m 0 min 0 min 106 W/m 12,9 km/h (3 Bft) 93,62 %
28.04.2023 16:42 18,8 C 17,8 C 13,3 C 77 % 1010,2 hPa 0,0 l/m 0 min 0 min 93 W/m 19,3 km/h (3 Bft) 93,62 %
28.04.2023 16:44 18,6 C 17,8 C 13,3 C 77 % 1010,3 hPa 0,0 l/m 0 min 0 min 95 W/m 22,5 km/h (4 Bft) 93,62 %
28.04.2023 16:46 18,4 C 17,8 C 13,3 C 77 % 1010,4 hPa 0,0 l/m 0 min 0 min 187 W/m 25,7 km/h (4 Bft) 95,74 %
28.04.2023 16:48 18,3 C 17,8 C 13,3 C 78 % 1010,3 hPa 0,0 l/m 0 min 0 min 206 W/m 16,1 km/h (3 Bft) 95,74 %
28.04.2023 16:50 18,3 C 17,8 C 13,3 C 78 % 1010,3 hPa 0,0 l/m 0 min 0 min 156 W/m 19,3 km/h (3 Bft) 93,48 %
28.04.2023 16:52 18,2 C 17,8 C 13,3 C 78 % 1010,4 hPa 0,0 l/m 0 min 0 min 111 W/m 16,1 km/h (3 Bft) 95,74 %
28.04.2023 16:54 18,2 C 17,2 C 13,3 C 77 % 1010,4 hPa 0,0 l/m 0 min 0 min 87 W/m 12,9 km/h (3 Bft) 95,74 %
28.04.2023 16:56 18,1 C 17,2 C 13,3 C 77 % 1010,4 hPa 0,0 l/m 0 min 0 min 62 W/m 22,5 km/h (4 Bft) 95,74 %
28.04.2023 16:58 18,0 C 17,2 C 13,3 C 78 % 1010,4 hPa 0,0 l/m 0 min 0 min 70 W/m 25,7 km/h (4 Bft) 95,74 %
28.04.2023 17:00 17,9 C 17,2 C 13,3 C 78 % 1010,4 hPa 0,0 l/m 0 min 0 min 76 W/m 16,1 km/h (3 Bft) 95,74 %
28.04.2023 17:02 17,8 C 16,7 C 12,8 C 79 % 1010,6 hPa 0,0 l/m 0 min 0 min 53 W/m 29,0 km/h (5 Bft) 97,87 %
28.04.2023 17:04 17,7 C 16,7 C 12,8 C 79 % 1010,5 hPa 0,0 l/m 0 min 0 min 39 W/m 19,3 km/h (3 Bft) 97,83 %
28.04.2023 17:06 17,4 C 16,1 C 12,8 C 80 % 1010,7 hPa 0,0 l/m 0 min 0 min 56 W/m 22,5 km/h (4 Bft) 96,61 %
28.04.2023 17:08 17,2 C 16,1 C 12,2 C 80 % 1010,7 hPa 0,0 l/m 0 min 0 min 73 W/m 22,5 km/h (4 Bft) 95,74 %
28.04.2023 17:10 17,1 C 16,1 C 12,2 C 80 % 1010,8 hPa 0,0 l/m 0 min 0 min 90 W/m 22,5 km/h (4 Bft) 100,00 %
28.04.2023 17:12 16,9 C 16,1 C 12,2 C 81 % 1010,8 hPa 0,0 l/m 0 min 0 min 143 W/m 16,1 km/h (3 Bft) 97,87 %
28.04.2023 17:14 16,8 C 16,1 C 12,2 C 81 % 1010,9 hPa 0,0 l/m 0 min 0 min 155 W/m 25,7 km/h (4 Bft) 100,00 %
28.04.2023 17:16 16,7 C 16,1 C 12,2 C 81 % 1010,9 hPa 0,0 l/m 0 min 0 min 88 W/m 22,5 km/h (4 Bft) 100,00 %
28.04.2023 17:18 16,6 C 15,6 C 12,2 C 81 % 1010,9 hPa 0,0 l/m 0 min 0 min 68 W/m 19,3 km/h (3 Bft) 100,00 %
28.04.2023 17:20 16,4 C 15,6 C 11,7 C 82 % 1010,9 hPa 0,0 l/m 0 min 0 min 94 W/m 22,5 km/h (4 Bft) 100,00 %
28.04.2023 17:22 16,4 C 15,6 C 11,7 C 82 % 1011,0 hPa 0,0 l/m 0 min 0 min 97 W/m 16,1 km/h (3 Bft) 100,00 %
28.04.2023 17:24 16,3 C 15,6 C 11,7 C 83 % 1011,0 hPa 0,0 l/m 0 min 0 min 80 W/m 19,3 km/h (3 Bft) 100,00 %
28.04.2023 17:26 16,3 C 15,6 C 11,7 C 83 % 1011,1 hPa 0,0 l/m 0 min 0 min 106 W/m 12,9 km/h (3 Bft) 100,00 %
28.04.2023 17:28 16,3 C 15,6 C 11,7 C 83 % 1011,1 hPa 0,0 l/m 0 min 0 min 108 W/m 16,1 km/h (3 Bft) 100,00 %
28.04.2023 17:30 16,2 C 15,6 C 11,7 C 83 % 1011,1 hPa 0,0 l/m 0 min 0 min 144 W/m 16,1 km/h (3 Bft) 100,00 %
28.04.2023 17:32 16,1 C 15,6 C 11,7 C 82 % 1011,1 hPa 0,0 l/m 0 min 0 min 197 W/m 19,3 km/h (3 Bft) 100,00 %
28.04.2023 17:34 16,1 C 15,6 C 11,7 C 82 % 1011,1 hPa 0,0 l/m 0 min 0 min 180 W/m 22,5 km/h (4 Bft) 97,87 %
28.04.2023 17:36 16,1 C 15,6 C 12,2 C 81 % 1011,0 hPa 0,0 l/m 0 min 0 min 156 W/m 25,7 km/h (4 Bft) 100,00 %
28.04.2023 17:38 16,1 C 16,1 C 12,2 C 81 % 1011,1 hPa 0,0 l/m 0 min 0 min 154 W/m 16,1 km/h (3 Bft) 100,00 %
28.04.2023 17:40 16,1 C 16,1 C 12,2 C 81 % 1011,2 hPa 0,0 l/m 0 min 0 min 151 W/m 29,0 km/h (5 Bft) 100,00 %
28.04.2023 17:42 16,1 C 16,1 C 12,2 C 80 % 1011,2 hPa 0,0 l/m 0 min 0 min 173 W/m 16,1 km/h (3 Bft) 100,00 %
28.04.2023 17:44 16,2 C 16,1 C 12,2 C 80 % 1011,2 hPa 0,0 l/m 0 min 0 min 192 W/m 19,3 km/h (3 Bft) 100,00 %
28.04.2023 17:46 16,2 C 16,1 C 12,2 C 80 % 1011,2 hPa 0,0 l/m 0 min 0 min 210 W/m 19,3 km/h (3 Bft) 100,00 %
28.04.2023 17:48 16,3 C 16,1 C 12,2 C 80 % 1011,2 hPa 0,0 l/m 0 min 0 min 179 W/m 16,1 km/h (3 Bft) 100,00 %
28.04.2023 17:50 16,3 C 16,1 C 12,2 C 79 % 1011,2 hPa 0,0 l/m 0 min 0 min 168 W/m 16,1 km/h (3 Bft) 100,00 %
28.04.2023 17:52 16,3 C 16,1 C 12,2 C 79 % 1011,2 hPa 0,0 l/m 0 min 0 min 146 W/m 19,3 km/h (3 Bft) 97,87 %
28.04.2023 17:54 16,3 C 16,1 C 12,2 C 79 % 1011,3 hPa 0,0 l/m 0 min 0 min 124 W/m 19,3 km/h (3 Bft) 95,74 %
28.04.2023 17:56 16,3 C 15,6 C 11,7 C 78 % 1011,2 hPa 0,0 l/m 0 min 0 min 138 W/m 19,3 km/h (3 Bft) 100,00 %
28.04.2023 17:58 16,3 C 15,6 C 11,7 C 78 % 1011,3 hPa 0,0 l/m 0 min 0 min 136 W/m 22,5 km/h (4 Bft) 97,87 %
28.04.2023 18:00 16,2 C 15,6 C 11,7 C 78 % 1011,2 hPa 0,0 l/m 0 min 0 min 101 W/m 25,7 km/h (4 Bft) 100,00 %
28.04.2023 18:02 16,2 C 15,6 C 11,7 C 79 % 1011,2 hPa 0,0 l/m 0 min 0 min 77 W/m 16,1 km/h (3 Bft) 95,74 %
28.04.2023 18:04 16,2 C 15,6 C 11,7 C 79 % 1011,3 hPa 0,0 l/m 0 min 0 min 89 W/m 12,9 km/h (3 Bft) 100,00 %
28.04.2023 18:07 16,2 C 15,6 C 11,7 C 79 % 1011,3 hPa 0,0 l/m 0 min 0 min 87 W/m 16,1 km/h (3 Bft) 100,00 %
28.04.2023 18:08 16,2 C 15,6 C 11,7 C 79 % 1011,3 hPa 0,0 l/m 0 min 0 min 76 W/m 16,1 km/h (3 Bft) 100,00 %
28.04.2023 18:12 16,1 C 15,6 C 11,7 C 80 % 1011,3 hPa 0,0 l/m 0 min 0 min 120 W/m 12,9 km/h (3 Bft) 98,18 %
28.04.2023 18:14 16,1 C 15,6 C 11,7 C 80 % 1011,3 hPa 0,0 l/m 0 min 0 min 126 W/m 19,3 km/h (3 Bft) 97,87 %
28.04.2023 18:16 16,1 C 15,6 C 11,7 C 80 % 1011,4 hPa 0,0 l/m 0 min 0 min 130 W/m 16,1 km/h (3 Bft) 97,87 %
28.04.2023 18:18 16,0 C 15,6 C 11,7 C 80 % 1011,5 hPa 0,0 l/m 0 min 0 min 123 W/m 19,3 km/h (3 Bft) 97,83 %
28.04.2023 18:20 16,0 C 15,6 C 11,7 C 80 % 1011,5 hPa 0,0 l/m 0 min 0 min 118 W/m 16,1 km/h (3 Bft) 97,87 %
28.04.2023 18:22 15,9 C 15,6 C 11,7 C 80 % 1011,4 hPa 0,0 l/m 0 min 0 min 114 W/m 12,9 km/h (3 Bft) 97,87 %
28.04.2023 18:24 15,9 C 15,6 C 11,7 C 81 % 1011,4 hPa 0,0 l/m 0 min 0 min 108 W/m 16,1 km/h (3 Bft) 97,87 %
28.04.2023 18:26 15,9 C 15,6 C 11,7 C 81 % 1011,4 hPa 0,0 l/m 0 min 0 min 109 W/m 16,1 km/h (3 Bft) 97,87 %
28.04.2023 18:28 15,9 C 15,6 C 11,7 C 81 % 1011,5 hPa 0,0 l/m 0 min 0 min 112 W/m 12,9 km/h (3 Bft) 97,87 %
28.04.2023 18:30 15,8 C 15,6 C 11,7 C 81 % 1011,5 hPa 0,0 l/m 0 min 0 min 106 W/m 16,1 km/h (3 Bft) 97,87 %
28.04.2023 18:32 15,8 C 15,6 C 11,7 C 81 % 1011,5 hPa 0,0 l/m 0 min 0 min 100 W/m 12,9 km/h (3 Bft) 97,83 %
28.04.2023 18:34 15,8 C 15,6 C 11,7 C 82 % 1011,4 hPa 0,0 l/m 0 min 0 min 98 W/m 16,1 km/h (3 Bft) 97,87 %
28.04.2023 18:36 15,8 C 15,0 C 11,7 C 81 % 1011,4 hPa 0,0 l/m 0 min 0 min 94 W/m 16,1 km/h (3 Bft) 93,62 %
28.04.2023 18:38 15,7 C 15,0 C 11,1 C 82 % 1011,4 hPa 0,0 l/m 0 min 0 min 91 W/m 16,1 km/h (3 Bft) 95,74 %
28.04.2023 18:40 15,7 C 15,0 C 11,1 C 82 % 1011,5 hPa 0,0 l/m 0 min 0 min 86 W/m 16,1 km/h (3 Bft) 97,87 %
28.04.2023 18:42 15,7 C 15,0 C 11,1 C 82 % 1011,5 hPa 0,0 l/m 0 min 0 min 71 W/m 16,1 km/h (3 Bft) 97,87 %
28.04.2023 18:44 15,6 C 15,0 C 11,1 C 82 % 1011,5 hPa 0,0 l/m 0 min 0 min 60 W/m 16,1 km/h (3 Bft) 100,00 %
28.04.2023 18:46 15,6 C 15,0 C 11,1 C 82 % 1011,6 hPa 0,0 l/m 0 min 0 min 71 W/m 19,3 km/h (3 Bft) 100,00 %
28.04.2023 18:48 15,6 C 15,0 C 11,1 C 82 % 1011,6 hPa 0,0 l/m 0 min 0 min 69 W/m 12,9 km/h (3 Bft) 100,00 %
28.04.2023 18:50 15,5 C 15,0 C 11,1 C 83 % 1011,6 hPa 0,0 l/m 0 min 0 min 74 W/m 22,5 km/h (4 Bft) 97,87 %
28.04.2023 18:52 15,4 C 14,4 C 11,1 C 83 % 1011,7 hPa 0,0 l/m 0 min 0 min 70 W/m 16,1 km/h (3 Bft) 100,00 %
28.04.2023 18:54 15,4 C 14,4 C 11,1 C 83 % 1011,6 hPa 0,0 l/m 0 min 0 min 72 W/m 19,3 km/h (3 Bft) 97,87 %
28.04.2023 18:56 15,4 C 14,4 C 11,1 C 83 % 1011,5 hPa 0,0 l/m 0 min 0 min 72 W/m 19,3 km/h (3 Bft) 100,00 %
28.04.2023 18:58 15,3 C 14,4 C 11,1 C 83 % 1011,5 hPa 0,0 l/m 0 min 0 min 68 W/m 19,3 km/h (3 Bft) 100,00 %
28.04.2023 19:00 15,3 C 14,4 C 11,1 C 84 % 1011,6 hPa 0,0 l/m 0 min 0 min 64 W/m 16,1 km/h (3 Bft) 100,00 %
28.04.2023 19:02 15,3 C 14,4 C 11,1 C 84 % 1011,5 hPa 0,0 l/m 0 min 0 min 60 W/m 16,1 km/h (3 Bft) 97,87 %
28.04.2023 19:04 15,3 C 14,4 C 11,1 C 84 % 1011,6 hPa 0,0 l/m 0 min 0 min 57 W/m 12,9 km/h (3 Bft) 95,74 %
28.04.2023 19:06 15,2 C 14,4 C 11,1 C 84 % 1011,6 hPa 0,0 l/m 0 min 0 min 59 W/m 16,1 km/h (3 Bft) 96,61 %
28.04.2023 19:08 15,2 C 14,4 C 11,1 C 84 % 1011,6 hPa 0,0 l/m 0 min 0 min 58 W/m 12,9 km/h (3 Bft) 97,14 %
28.04.2023 19:10 15,2 C 14,4 C 11,1 C 84 % 1011,7 hPa 0,0 l/m 0 min 0 min 57 W/m 6,4 km/h (2 Bft) 97,87 %
28.04.2023 19:12 15,2 C 14,4 C 11,1 C 84 % 1011,7 hPa 0,0 l/m 0 min 0 min 60 W/m 16,1 km/h (3 Bft) 97,83 %
28.04.2023 19:14 15,2 C 14,4 C 10,6 C 84 % 1011,8 hPa 0,0 l/m 0 min 0 min 62 W/m 12,9 km/h (3 Bft) 95,74 %
28.04.2023 19:16 15,2 C 14,4 C 10,6 C 85 % 1011,8 hPa 0,0 l/m 0 min 0 min 65 W/m 9,7 km/h (2 Bft) 95,74 %
28.04.2023 19:18 15,2 C 14,4 C 10,6 C 85 % 1011,8 hPa 0,0 l/m 0 min 0 min 66 W/m 16,1 km/h (3 Bft) 97,87 %
28.04.2023 19:20 15,2 C 14,4 C 10,6 C 85 % 1011,7 hPa 0,0 l/m 0 min 0 min 66 W/m 12,9 km/h (3 Bft) 91,49 %
28.04.2023 19:22 15,1 C 14,4 C 10,6 C 85 % 1011,7 hPa 0,0 l/m 0 min 0 min 68 W/m 12,9 km/h (3 Bft) 97,87 %
28.04.2023 19:24 15,1 C 14,4 C 10,6 C 85 % 1011,7 hPa 0,0 l/m 0 min 0 min 64 W/m 16,1 km/h (3 Bft) 95,74 %
28.04.2023 19:26 15,1 C 14,4 C 10,6 C 85 % 1011,7 hPa 0,0 l/m 0 min 0 min 53 W/m 19,3 km/h (3 Bft) 93,48 %
28.04.2023 19:28 15,1 C 14,4 C 10,6 C 85 % 1011,7 hPa 0,0 l/m 0 min 0 min 48 W/m 16,1 km/h (3 Bft) 91,49 %
28.04.2023 19:30 15,0 C 14,4 C 10,6 C 85 % 1011,8 hPa 0,0 l/m 0 min 0 min 43 W/m 12,9 km/h (3 Bft) 95,74 %
28.04.2023 19:32 14,9 C 14,4 C 10,6 C 86 % 1011,8 hPa 0,0 l/m 0 min 0 min 34 W/m 16,1 km/h (3 Bft) 95,74 %
28.04.2023 19:34 14,9 C 14,4 C 10,6 C 86 % 1011,8 hPa 0,0 l/m 0 min 0 min 34 W/m 12,9 km/h (3 Bft) 95,74 %
28.04.2023 19:36 14,9 C 14,4 C 10,6 C 86 % 1011,8 hPa 0,0 l/m 0 min 0 min 32 W/m 16,1 km/h (3 Bft) 95,74 %
28.04.2023 19:38 14,9 C 13,9 C 10,6 C 86 % 1011,8 hPa 0,0 l/m 0 min 0 min 35 W/m 19,3 km/h (3 Bft) 95,74 %
28.04.2023 19:40 14,9 C 13,9 C 10,6 C 86 % 1011,8 hPa 0,0 l/m 0 min 0 min 39 W/m 12,9 km/h (3 Bft) 92,16 %
28.04.2023 19:42 14,8 C 13,9 C 10,6 C 86 % 1011,8 hPa 0,0 l/m 0 min 0 min 39 W/m 16,1 km/h (3 Bft) 93,62 %
28.04.2023 19:44 14,8 C 13,9 C 10,6 C 87 % 1011,9 hPa 0,0 l/m 0 min 0 min 34 W/m 6,4 km/h (2 Bft) 95,74 %
28.04.2023 19:46 14,8 C 13,9 C 10,6 C 87 % 1011,9 hPa 0,0 l/m 0 min 0 min 36 W/m 19,3 km/h (3 Bft) 97,87 %
28.04.2023 19:48 14,7 C 13,9 C 10,6 C 87 % 1011,9 hPa 0,0 l/m 0 min 0 min 39 W/m 16,1 km/h (3 Bft) 97,87 %
28.04.2023 19:50 14,7 C 13,9 C 10,6 C 87 % 1011,9 hPa 0,0 l/m 0 min 0 min 39 W/m 9,7 km/h (2 Bft) 97,83 %
28.04.2023 19:52 14,7 C 13,9 C 10,6 C 87 % 1011,9 hPa 0,0 l/m 0 min 0 min 39 W/m 6,4 km/h (2 Bft) 97,87 %
28.04.2023 19:54 14,7 C 13,9 C 10,6 C 87 % 1012,0 hPa 0,0 l/m 0 min 0 min 34 W/m 12,9 km/h (3 Bft) 97,87 %
28.04.2023 19:56 14,6 C 13,9 C 10,6 C 87 % 1012,0 hPa 0,0 l/m 0 min 0 min 27 W/m 12,9 km/h (3 Bft) 95,74 %
28.04.2023 19:58 14,6 C 13,9 C 10,6 C 87 % 1012,0 hPa 0,0 l/m 0 min 0 min 25 W/m 9,7 km/h (2 Bft) 97,87 %
28.04.2023 20:00 14,6 C 13,9 C 10,6 C 88 % 1012,0 hPa 0,0 l/m 0 min 0 min 23 W/m 6,4 km/h (2 Bft) 97,87 %
28.04.2023 20:02 14,6 C 13,9 C 10,0 C 88 % 1012,0 hPa 0,0 l/m 0 min 0 min 20 W/m 9,7 km/h (2 Bft) 97,87 %
28.04.2023 20:04 14,6 C 13,9 C 10,0 C 88 % 1012,0 hPa 0,0 l/m 0 min 0 min 17 W/m 9,7 km/h (2 Bft) 95,74 %
28.04.2023 20:06 14,6 C 13,9 C 10,0 C 88 % 1012,1 hPa 0,0 l/m 0 min 0 min 13 W/m 12,9 km/h (3 Bft) 95,74 %
28.04.2023 20:08 14,6 C 13,9 C 10,0 C 88 % 1012,1 hPa 0,0 l/m 0 min 0 min 11 W/m 12,9 km/h (3 Bft) 95,74 %
28.04.2023 20:10 14,6 C 13,9 C 10,0 C 88 % 1012,1 hPa 0,0 l/m 0 min 0 min 11 W/m 9,7 km/h (2 Bft) 95,74 %
28.04.2023 20:12 14,6 C 13,9 C 10,0 C 88 % 1012,1 hPa 0,0 l/m 0 min 0 min 11 W/m 12,9 km/h (3 Bft) 95,74 %
28.04.2023 20:14 14,5 C 13,9 C 10,0 C 88 % 1012,1 hPa 0,0 l/m 0 min 0 min 9 W/m 9,7 km/h (2 Bft) 95,74 %
28.04.2023 20:16 14,5 C 13,9 C 10,0 C 88 % 1012,2 hPa 0,0 l/m 0 min 0 min 7 W/m 6,4 km/h (2 Bft) 95,74 %
28.04.2023 20:18 14,5 C 13,9 C 10,0 C 88 % 1012,1 hPa 0,0 l/m 0 min 0 min 6 W/m 6,4 km/h (2 Bft) 97,83 %
28.04.2023 20:20 14,5 C 13,9 C 10,0 C 88 % 1012,1 hPa 0,0 l/m 0 min 0 min 5 W/m 3,2 km/h (1 Bft) 95,74 %
28.04.2023 20:22 14,5 C 13,9 C 10,0 C 88 % 1012,2 hPa 0,0 l/m 0 min 0 min 5 W/m 6,4 km/h (2 Bft) 97,87 %
28.04.2023 20:24 14,4 C 13,9 C 10,0 C 88 % 1012,2 hPa 0,0 l/m 0 min 0 min 5 W/m 3,2 km/h (1 Bft) 97,87 %
28.04.2023 20:26 14,4 C 13,9 C 10,0 C 89 % 1012,2 hPa 0,0 l/m 0 min 0 min 7 W/m 3,2 km/h (1 Bft) 97,87 %
28.04.2023 20:28 14,4 C 13,9 C 10,0 C 89 % 1012,2 hPa 0,0 l/m 0 min 0 min 7 W/m 3,2 km/h (1 Bft) 95,74 %
28.04.2023 20:30 14,4 C 13,9 C 10,0 C 89 % 1012,2 hPa 0,0 l/m 0 min 0 min 7 W/m 9,7 km/h (2 Bft) 97,87 %
28.04.2023 20:32 14,4 C 13,9 C 10,0 C 89 % 1012,2 hPa 0,0 l/m 0 min 0 min 7 W/m 6,4 km/h (2 Bft) 97,83 %
28.04.2023 20:34 14,4 C 13,9 C 10,0 C 89 % 1012,2 hPa 0,0 l/m 0 min 0 min 6 W/m 6,4 km/h (2 Bft) 97,87 %
28.04.2023 20:36 14,4 C 13,9 C 10,0 C 89 % 1012,2 hPa 0,0 l/m 0 min 0 min 5 W/m 6,4 km/h (2 Bft) 95,74 %
28.04.2023 20:38 14,3 C 13,9 C 10,0 C 89 % 1012,2 hPa 0,0 l/m 0 min 0 min 5 W/m 6,4 km/h (2 Bft) 100,00 %
28.04.2023 20:40 14,4 C 13,9 C 10,0 C 89 % 1012,2 hPa 0,0 l/m 0 min 0 min 5 W/m 3,2 km/h (1 Bft) 100,00 %
28.04.2023 20:42 14,3 C 13,9 C 10,0 C 89 % 1012,2 hPa 0,0 l/m 0 min 0 min 1 W/m 3,2 km/h (1 Bft) 100,00 %
28.04.2023 20:44 14,3 C 13,9 C 10,0 C 89 % 1012,2 hPa 0,0 l/m 0 min 0 min 0 W/m 3,2 km/h (1 Bft) 100,00 %
28.04.2023 20:46 14,3 C 13,9 C 10,0 C 89 % 1012,2 hPa 0,0 l/m 0 min 0 min 0 W/m 3,2 km/h (1 Bft) 100,00 %
28.04.2023 20:48 14,3 C 13,9 C 10,0 C 89 % 1012,2 hPa 0,0 l/m 0 min 0 min 0 W/m 6,4 km/h (2 Bft) 100,00 %
28.04.2023 20:50 14,3 C 13,9 C 10,0 C 89 % 1012,2 hPa 0,0 l/m 0 min 0 min 0 W/m 6,4 km/h (2 Bft) 100,00 %
28.04.2023 20:52 14,3 C 13,3 C 10,0 C 89 % 1012,2 hPa 0,0 l/m 0 min 0 min 0 W/m 6,4 km/h (2 Bft) 100,00 %
28.04.2023 20:54 14,3 C 13,3 C 10,0 C 89 % 1012,2 hPa 0,0 l/m 0 min 0 min 0 W/m 3,2 km/h (1 Bft) 100,00 %
28.04.2023 20:56 14,3 C 13,3 C 10,0 C 89 % 1012,2 hPa 0,0 l/m 0 min 0 min 0 W/m 3,2 km/h (1 Bft) 100,00 %
28.04.2023 20:58 14,3 C 13,3 C 10,0 C 89 % 1012,2 hPa 0,0 l/m 0 min 0 min 0 W/m 3,2 km/h (1 Bft) 100,00 %
28.04.2023 21:00 14,3 C 13,3 C 10,0 C 89 % 1012,1 hPa 0,0 l/m 0 min 0 min 0 W/m 6,4 km/h (2 Bft) 97,83 %
28.04.2023 21:02 14,3 C 13,3 C 10,0 C 89 % 1012,1 hPa 0,0 l/m 0 min 0 min 0 W/m 3,2 km/h (1 Bft) 100,00 %
28.04.2023 21:04 14,3 C 13,3 C 10,0 C 89 % 1012,1 hPa 0,0 l/m 0 min 0 min 0 W/m 3,2 km/h (1 Bft) 97,87 %
28.04.2023 21:06 14,3 C 13,3 C 10,0 C 89 % 1012,1 hPa 0,0 l/m 0 min 0 min 0 W/m 6,4 km/h (2 Bft) 100,00 %
28.04.2023 21:08 14,3 C 13,3 C 10,0 C 89 % 1012,2 hPa 0,0 l/m 0 min 0 min 0 W/m 3,2 km/h (1 Bft) 100,00 %
28.04.2023 21:10 14,3 C 13,3 C 10,0 C 89 % 1012,2 hPa 0,0 l/m 0 min 0 min 0 W/m 6,4 km/h (2 Bft) 100,00 %
28.04.2023 21:12 14,3 C 13,3 C 10,0 C 89 % 1012,2 hPa 0,0 l/m 0 min 0 min 0 W/m 6,4 km/h (2 Bft) 95,74 %
28.04.2023 21:14 14,3 C 13,3 C 10,0 C 89 % 1012,2 hPa 0,0 l/m 0 min 0 min 0 W/m 19,3 km/h (3 Bft) 97,87 %
28.04.2023 21:16 14,3 C 13,3 C 10,0 C 89 % 1012,2 hPa 0,0 l/m 0 min 0 min 0 W/m 6,4 km/h (2 Bft) 100,00 %
28.04.2023 21:18 14,3 C 13,3 C 10,0 C 89 % 1012,2 hPa 0,0 l/m 0 min 0 min 0 W/m 6,4 km/h (2 Bft) 100,00 %
28.04.2023 21:20 14,3 C 13,3 C 10,0 C 89 % 1012,3 hPa 0,0 l/m 0 min 0 min 0 W/m 3,2 km/h (1 Bft) 100,00 %
28.04.2023 21:22 14,3 C 13,3 C 10,0 C 89 % 1012,3 hPa 0,0 l/m 0 min 0 min 0 W/m 6,4 km/h (2 Bft) 100,00 %
28.04.2023 21:24 14,2 C 13,3 C 9,4 C 89 % 1012,3 hPa 0,0 l/m 0 min 0 min 0 W/m 3,2 km/h (1 Bft) 100,00 %
28.04.2023 21:26 14,2 C 13,3 C 10,0 C 89 % 1012,3 hPa 0,0 l/m 0 min 0 min 0 W/m 6,4 km/h (2 Bft) 100,00 %
28.04.2023 21:28 14,2 C 13,3 C 10,0 C 89 % 1012,4 hPa 0,0 l/m 0 min 0 min 0 W/m 6,4 km/h (2 Bft) 100,00 %
28.04.2023 21:30 14,2 C 13,3 C 10,0 C 89 % 1012,5 hPa 0,0 l/m 0 min 0 min 0 W/m 6,4 km/h (2 Bft) 100,00 %
28.04.2023 21:32 14,2 C 13,3 C 10,0 C 89 % 1012,4 hPa 0,0 l/m 0 min 0 min 0 W/m 6,4 km/h (2 Bft) 100,00 %
28.04.2023 21:34 14,2 C 13,3 C 10,0 C 89 % 1012,5 hPa 0,0 l/m 0 min 0 min 0 W/m 6,4 km/h (2 Bft) 100,00 %
28.04.2023 21:36 14,2 C 13,3 C 10,0 C 89 % 1012,5 hPa 0,0 l/m 0 min 0 min 0 W/m 6,4 km/h (2 Bft) 97,87 %
28.04.2023 21:38 14,2 C 13,3 C 10,0 C 89 % 1012,5 hPa 0,0 l/m 0 min 0 min 0 W/m 6,4 km/h (2 Bft) 100,00 %
28.04.2023 21:40 14,2 C 13,3 C 10,0 C 89 % 1012,6 hPa 0,0 l/m 0 min 0 min 0 W/m 3,2 km/h (1 Bft) 97,14 %
28.04.2023 21:42 14,2 C 13,3 C 9,4 C 89 % 1012,5 hPa 0,0 l/m 0 min 0 min 0 W/m 6,4 km/h (2 Bft) 98,31 %
28.04.2023 21:44 14,2 C 13,3 C 9,4 C 89 % 1012,5 hPa 0,0 l/m 0 min 0 min 0 W/m 6,4 km/h (2 Bft) 100,00 %
28.04.2023 21:46 14,2 C 13,3 C 9,4 C 89 % 1012,5 hPa 0,0 l/m 0 min 0 min 0 W/m 3,2 km/h (1 Bft) 100,00 %
28.04.2023 21:48 14,2 C 13,3 C 9,4 C 90 % 1012,6 hPa 0,0 l/m 0 min 0 min 0 W/m 9,7 km/h (2 Bft) 95,74 %
28.04.2023 21:50 14,2 C 13,3 C 9,4 C 90 % 1012,6 hPa 0,0 l/m 0 min 0 min 0 W/m 6,4 km/h (2 Bft) 100,00 %
28.04.2023 21:52 14,2 C 13,3 C 9,4 C 90 % 1012,6 hPa 0,0 l/m 0 min 0 min 0 W/m 6,4 km/h (2 Bft) 97,87 %
28.04.2023 21:54 14,2 C 13,3 C 9,4 C 90 % 1012,7 hPa 0,0 l/m 0 min 0 min 0 W/m 12,9 km/h (3 Bft) 97,87 %
28.04.2023 21:56 14,1 C 13,3 C 9,4 C 90 % 1012,7 hPa 0,0 l/m 0 min 0 min 0 W/m 16,1 km/h (3 Bft) 95,74 %
28.04.2023 21:58 14,1 C 13,3 C 9,4 C 90 % 1012,6 hPa 0,0 l/m 0 min 0 min 0 W/m 12,9 km/h (3 Bft) 95,74 %
28.04.2023 22:00 14,1 C 13,3 C 9,4 C 90 % 1012,6 hPa 0,0 l/m 0 min 0 min 0 W/m 9,7 km/h (2 Bft) 93,48 %
28.04.2023 22:02 14,1 C 13,3 C 10,0 C 90 % 1012,6 hPa 0,0 l/m 0 min 0 min 0 W/m 12,9 km/h (3 Bft) 93,62 %
28.04.2023 22:04 14,1 C 13,3 C 10,0 C 90 % 1012,6 hPa 0,0 l/m 0 min 0 min 0 W/m 6,4 km/h (2 Bft) 95,74 %
28.04.2023 22:06 14,1 C 13,3 C 10,0 C 90 % 1012,7 hPa 0,0 l/m 0 min 0 min 0 W/m 16,1 km/h (3 Bft) 93,22 %
28.04.2023 22:08 14,1 C 13,3 C 10,0 C 90 % 1012,7 hPa 0,0 l/m 0 min 0 min 0 W/m 12,9 km/h (3 Bft) 97,14 %
28.04.2023 22:10 14,1 C 13,3 C 10,0 C 90 % 1012,6 hPa 0,0 l/m 0 min 0 min 0 W/m 19,3 km/h (3 Bft) 95,74 %
28.04.2023 22:12 14,1 C 13,3 C 10,0 C 90 % 1012,8 hPa 0,0 l/m 0 min 0 min 0 W/m 12,9 km/h (3 Bft) 95,74 %
28.04.2023 22:14 14,1 C 13,3 C 10,0 C 90 % 1012,8 hPa 0,0 l/m 0 min 0 min 0 W/m 12,9 km/h (3 Bft) 95,65 %
28.04.2023 22:16 14,1 C 13,3 C 10,0 C 90 % 1012,8 hPa 0,0 l/m 0 min 0 min 0 W/m 16,1 km/h (3 Bft) 91,49 %
28.04.2023 22:18 14,1 C 13,3 C 10,0 C 90 % 1012,8 hPa 0,0 l/m 0 min 0 min 0 W/m 12,9 km/h (3 Bft) 91,49 %
28.04.2023 22:20 14,1 C 13,3 C 10,0 C 90 % 1012,8 hPa 0,0 l/m 0 min 0 min 0 W/m 9,7 km/h (2 Bft) 91,49 %
28.04.2023 22:22 14,1 C 13,3 C 10,0 C 90 % 1012,8 hPa 0,0 l/m 0 min 0 min 0 W/m 16,1 km/h (3 Bft) 93,62 %
28.04.2023 22:24 14,1 C 13,3 C 10,0 C 90 % 1012,8 hPa 0,0 l/m 0 min 0 min 0 W/m 12,9 km/h (3 Bft) 93,62 %
28.04.2023 22:26 14,1 C 13,3 C 10,0 C 90 % 1012,8 hPa 0,0 l/m 0 min 0 min 0 W/m 12,9 km/h (3 Bft) 93,88 %
28.04.2023 22:28 14,1 C 13,3 C 9,4 C 90 % 1012,8 hPa 0,0 l/m 0 min 0 min 0 W/m 12,9 km/h (3 Bft) 93,48 %
28.04.2023 22:30 14,1 C 13,3 C 9,4 C 90 % 1012,8 hPa 0,0 l/m 0 min 0 min 0 W/m 22,5 km/h (4 Bft) 91,49 %
28.04.2023 22:32 14,0 C 13,3 C 9,4 C 90 % 1012,8 hPa 0,0 l/m 0 min 0 min 0 W/m 19,3 km/h (3 Bft) 95,74 %
28.04.2023 22:34 13,9 C 12,8 C 9,4 C 90 % 1012,9 hPa 0,0 l/m 0 min 0 min 0 W/m 12,9 km/h (3 Bft) 95,74 %
28.04.2023 22:36 13,9 C 12,8 C 9,4 C 91 % 1012,9 hPa 0,0 l/m 0 min 0 min 0 W/m 19,3 km/h (3 Bft) 93,62 %
28.04.2023 22:38 13,9 C 12,8 C 8,9 C 91 % 1012,9 hPa 0,0 l/m 0 min 0 min 0 W/m 16,1 km/h (3 Bft) 93,62 %
28.04.2023 22:40 13,8 C 12,8 C 8,9 C 91 % 1012,9 hPa 0,0 l/m 0 min 0 min 0 W/m 9,7 km/h (2 Bft) 95,74 %
28.04.2023 22:42 13,8 C 12,8 C 8,9 C 92 % 1012,9 hPa 0,0 l/m 0 min 0 min 0 W/m 19,3 km/h (3 Bft) 97,83 %
28.04.2023 22:44 13,7 C 12,8 C 8,9 C 92 % 1012,9 hPa 0,0 l/m 0 min 2 min 0 W/m 25,7 km/h (4 Bft) 95,74 %
28.04.2023 22:46 13,7 C 12,8 C 8,9 C 92 % 1012,8 hPa 0,0 l/m 0 min 0 min 0 W/m 16,1 km/h (3 Bft) 97,87 %
28.04.2023 22:48 13,7 C 12,8 C 8,9 C 92 % 1012,8 hPa 0,0 l/m 0 min 2 min 0 W/m 12,9 km/h (3 Bft) 97,87 %
28.04.2023 22:50 13,6 C 12,8 C 8,9 C 92 % 1012,8 hPa 0,0 l/m 0 min 0 min 0 W/m 12,9 km/h (3 Bft) 91,49 %
28.04.2023 22:52 13,6 C 12,2 C 8,9 C 92 % 1012,8 hPa 0,0 l/m 0 min 0 min 0 W/m 9,7 km/h (2 Bft) 97,87 %
28.04.2023 22:54 13,6 C 12,2 C 8,9 C 93 % 1012,8 hPa 0,0 l/m 0 min 2 min 0 W/m 25,7 km/h (4 Bft) 97,87 %
28.04.2023 22:56 13,4 C 12,2 C 8,9 C 93 % 1012,9 hPa 0,0 l/m 0 min 2 min 0 W/m 12,9 km/h (3 Bft) 95,74 %
28.04.2023 22:58 13,4 C 12,2 C 8,9 C 93 % 1012,8 hPa 0,0 l/m 0 min 0 min 0 W/m 12,9 km/h (3 Bft) 95,65 %
28.04.2023 23:00 13,4 C 12,2 C 8,9 C 93 % 1012,9 hPa 0,0 l/m 0 min 0 min 0 W/m 9,7 km/h (2 Bft) 97,87 %
28.04.2023 23:02 13,4 C 12,2 C 8,9 C 93 % 1012,8 hPa 0,0 l/m 0 min 0 min 0 W/m 22,5 km/h (4 Bft) 95,74 %
28.04.2023 23:04 13,3 C 12,2 C 8,9 C 93 % 1012,9 hPa 0,0 l/m 0 min 0 min 0 W/m 16,1 km/h (3 Bft) 97,92 %
28.04.2023 23:06 13,3 C 12,2 C 8,9 C 94 % 1012,9 hPa 0,0 l/m 0 min 0 min 0 W/m 19,3 km/h (3 Bft) 100,00 %
28.04.2023 23:08 13,3 C 12,2 C 8,9 C 94 % 1012,9 hPa 0,0 l/m 0 min 0 min 0 W/m 19,3 km/h (3 Bft) 100,00 %
28.04.2023 23:10 13,3 C 12,2 C 8,9 C 94 % 1012,9 hPa 0,0 l/m 0 min 0 min 0 W/m 22,5 km/h (4 Bft) 97,87 %
28.04.2023 23:12 13,3 C 12,2 C 8,9 C 94 % 1012,9 hPa 0,0 l/m 0 min 0 min 0 W/m 22,5 km/h (4 Bft) 100,00 %
28.04.2023 23:14 13,3 C 12,2 C 8,9 C 94 % 1013,0 hPa 0,0 l/m 0 min 0 min 0 W/m 12,9 km/h (3 Bft) 100,00 %
28.04.2023 23:16 13,2 C 12,2 C 8,9 C 94 % 1013,0 hPa 0,0 l/m 0 min 0 min 0 W/m 9,7 km/h (2 Bft) 100,00 %
28.04.2023 23:18 13,2 C 12,2 C 8,9 C 94 % 1013,0 hPa 0,0 l/m 0 min 0 min 0 W/m 16,1 km/h (3 Bft) 100,00 %
28.04.2023 23:20 13,2 C 12,2 C 8,9 C 94 % 1013,0 hPa 0,0 l/m 0 min 0 min 0 W/m 12,9 km/h (3 Bft) 97,87 %
28.04.2023 23:22 13,2 C 12,2 C 8,9 C 94 % 1013,1 hPa 0,0 l/m 0 min 0 min 0 W/m 12,9 km/h (3 Bft) 100,00 %
28.04.2023 23:24 13,2 C 12,2 C 8,9 C 94 % 1013,0 hPa 0,0 l/m 0 min 0 min 0 W/m 6,4 km/h (2 Bft) 100,00 %
28.04.2023 23:26 13,2 C 12,2 C 8,9 C 94 % 1013,0 hPa 0,0 l/m 0 min 0 min 0 W/m 12,9 km/h (3 Bft) 100,00 %
28.04.2023 23:28 13,2 C 12,2 C 8,9 C 95 % 1013,0 hPa 0,0 l/m 0 min 0 min 0 W/m 6,4 km/h (2 Bft) 97,87 %
28.04.2023 23:30 13,2 C 12,2 C 8,9 C 95 % 1013,1 hPa 0,0 l/m 0 min 0 min 0 W/m 16,1 km/h (3 Bft) 100,00 %
28.04.2023 23:32 13,1 C 12,2 C 8,9 C 95 % 1013,1 hPa 0,0 l/m 0 min 0 min 0 W/m 16,1 km/h (3 Bft) 100,00 %
28.04.2023 23:34 13,1 C 12,2 C 8,9 C 95 % 1013,1 hPa 0,0 l/m 0 min 0 min 0 W/m 16,1 km/h (3 Bft) 97,87 %
28.04.2023 23:36 13,1 C 12,2 C 8,9 C 95 % 1013,1 hPa 0,0 l/m 0 min 0 min 0 W/m 9,7 km/h (2 Bft) 100,00 %
28.04.2023 23:38 13,1 C 12,2 C 8,9 C 95 % 1013,2 hPa 0,0 l/m 0 min 0 min 0 W/m 16,1 km/h (3 Bft) 100,00 %
28.04.2023 23:40 13,1 C 12,2 C 8,9 C 95 % 1013,1 hPa 0,0 l/m 0 min 0 min 0 W/m 12,9 km/h (3 Bft) 97,83 %
28.04.2023 23:42 13,1 C 12,2 C 8,9 C 95 % 1013,1 hPa 0,0 l/m 0 min 0 min 0 W/m 12,9 km/h (3 Bft) 100,00 %
28.04.2023 23:44 13,0 C 12,2 C 8,9 C 95 % 1013,1 hPa 0,0 l/m 0 min 0 min 0 W/m 19,3 km/h (3 Bft) 100,00 %
28.04.2023 23:46 13,0 C 12,2 C 8,9 C 95 % 1013,1 hPa 0,0 l/m 0 min 0 min 0 W/m 16,1 km/h (3 Bft) 100,00 %
28.04.2023 23:48 13,0 C 12,2 C 8,9 C 95 % 1013,1 hPa 0,0 l/m 0 min 0 min 0 W/m 12,9 km/h (3 Bft) 100,00 %
28.04.2023 23:50 13,0 C 12,2 C 8,3 C 95 % 1013,2 hPa 0,0 l/m 0 min 0 min 0 W/m 12,9 km/h (3 Bft) 97,87 %
28.04.2023 23:52 12,9 C 12,2 C 8,3 C 95 % 1013,0 hPa 0,0 l/m 0 min 0 min 0 W/m 16,1 km/h (3 Bft) 97,87 %
28.04.2023 23:54 12,9 C 12,2 C 8,3 C 95 % 1013,1 hPa 0,0 l/m 0 min 0 min 0 W/m 12,9 km/h (3 Bft) 97,83 %
28.04.2023 23:56 12,9 C 12,2 C 8,3 C 95 % 1013,1 hPa 0,0 l/m 0 min 0 min 0 W/m 12,9 km/h (3 Bft) 97,87 %
28.04.2023 23:58 12,9 C 12,2 C 8,3 C 95 % 1013,0 hPa 0,0 l/m 0 min 0 min 0 W/m 12,9 km/h (3 Bft) 97,87 %
_ Min-Zeit 03:18 02:48 02:44 00:00 15:42 - - - - 00:15 02:44
Minimum _ 8,7 C 7,8 C 3,9 C 71 % 1010,0 hPa - - - - 0,0 km/h (0 Bft) 40,00 %
_ Max-Zeit 15:56 14:30 15:38 13:10 00:00 02:46 09:20 00:35 16:08 17:02 00:00
Maximum _ 20,0 C 23,3 C 15,6 C 95 % 1015,1 hPa 0,2 l/m 2 min 5 min 831 W/m 29,0 km/h
N (5 Bft)
100,00 %
Durchschnitt _ 13,0 C 12,7 C 8,6 C 87 % 1011,9 hPa #1,0 l/m #2:02 h #2:42 h 169 W/m 10,0 km/h (2 Bft) 97,60 %
© 2023 W. Hausmann